GEFSSGP_prec_meanprecacc_084.txt.gz
Total_Precipitation_Accumulation
0.06 0.20 0.35 0.42 0.75 0.42 0.05 0.01 0.00 0.00 0.01 0.01 0.00 0.00 0.01 0.05 0.18 0.42 0.19 0.07 0.04 0.05 0.15 0.20 0.29 0.29 0.24 0.21 0.29 0.39 0.51 0.64 0.64 0.57 0.48 0.30 0.25 0.21 0.22 0.22 0.24 0.25 0.21 0.25 0.29 0.34 0.33 0.29 0.26
0.15 0.34 0.49 0.88 0.82 0.14 0.03 0.01 0.01 0.01 0.01 0.01 0.00 0.00 0.00 0.01 0.01 0.05 0.12 0.14 0.05 0.03 0.09 0.17 0.22 0.28 0.27 0.31 0.44 0.50 0.56 0.61 0.57 0.47 0.34 0.25 0.22 0.22 0.22 0.28 0.30 0.25 0.21 0.24 0.28 0.39 0.35 0.28 0.25
0.20 0.33 0.57 0.89 0.31 0.06 0.04 0.03 0.02 0.01 0.01 0.00 0.00 0.00 0.01 0.03 0.03 0.05 0.08 0.09 0.04 0.03 0.10 0.17 0.21 0.26 0.27 0.34 0.44 0.53 0.54 0.51 0.49 0.44 0.32 0.25 0.22 0.20 0.23 0.27 0.30 0.26 0.19 0.17 0.23 0.27 0.26 0.25 0.20
0.25 0.49 0.70 0.50 0.09 0.04 0.03 0.04 0.03 0.02 0.01 0.01 0.01 0.00 0.02 0.03 0.05 0.05 0.07 0.07 0.06 0.07 0.10 0.12 0.24 0.27 0.26 0.41 0.48 0.51 0.45 0.39 0.43 0.43 0.34 0.27 0.19 0.19 0.25 0.23 0.21 0.16 0.12 0.13 0.19 0.23 0.22 0.20 0.14
0.30 0.69 0.79 0.33 0.10 0.08 0.07 0.05 0.03 0.01 0.01 0.02 0.02 0.02 0.07 0.06 0.06 0.05 0.07 0.08 0.10 0.14 0.15 0.13 0.27 0.25 0.25 0.39 0.48 0.50 0.52 0.49 0.49 0.47 0.40 0.35 0.25 0.21 0.23 0.18 0.11 0.06 0.08 0.13 0.26 0.29 0.18 0.15 0.13
0.51 0.92 1.14 0.55 0.23 0.16 0.12 0.07 0.03 0.03 0.03 0.04 0.04 0.06 0.10 0.09 0.09 0.09 0.10 0.13 0.16 0.15 0.16 0.16 0.27 0.28 0.30 0.39 0.43 0.39 0.45 0.57 0.59 0.50 0.47 0.63 0.42 0.27 0.18 0.12 0.06 0.03 0.06 0.10 0.19 0.23 0.16 0.14 0.18
0.62 1.07 1.02 0.53 0.27 0.27 0.16 0.07 0.04 0.05 0.05 0.07 0.07 0.11 0.15 0.16 0.12 0.11 0.13 0.18 0.20 0.19 0.18 0.19 0.26 0.32 0.34 0.42 0.47 0.46 0.47 0.56 0.63 0.51 0.49 0.58 0.36 0.17 0.11 0.07 0.04 0.02 0.03 0.05 0.09 0.14 0.16 0.16 0.21
0.27 0.60 0.69 0.52 0.37 0.31 0.15 0.05 0.04 0.04 0.05 0.07 0.08 0.13 0.30 0.32 0.19 0.17 0.18 0.22 0.23 0.25 0.27 0.23 0.27 0.39 0.51 0.53 0.48 0.54 0.58 0.55 0.62 0.53 0.50 0.44 0.21 0.10 0.07 0.04 0.03 0.03 0.03 0.04 0.08 0.12 0.13 0.14 0.17
0.25 0.47 0.76 0.74 0.44 0.27 0.16 0.10 0.06 0.05 0.05 0.07 0.07 0.09 0.18 0.25 0.24 0.27 0.29 0.28 0.30 0.31 0.34 0.32 0.27 0.31 0.47 0.56 0.47 0.65 0.71 0.64 0.55 0.51 0.47 0.35 0.19 0.14 0.12 0.07 0.06 0.04 0.05 0.05 0.09 0.12 0.09 0.07 0.09
0.37 0.59 0.82 0.60 0.37 0.20 0.14 0.11 0.08 0.07 0.10 0.08 0.07 0.09 0.13 0.20 0.25 0.31 0.33 0.35 0.36 0.37 0.34 0.33 0.31 0.32 0.35 0.42 0.64 0.98 0.80 0.66 0.47 0.47 0.42 0.38 0.35 0.32 0.20 0.17 0.16 0.13 0.08 0.06 0.09 0.10 0.05 0.02 0.04
0.37 0.41 0.47 0.47 0.27 0.14 0.08 0.09 0.09 0.08 0.10 0.09 0.09 0.10 0.13 0.18 0.23 0.25 0.29 0.33 0.37 0.39 0.39 0.35 0.30 0.29 0.32 0.46 0.60 0.78 0.85 0.81 0.66 0.52 0.49 0.55 0.48 0.31 0.18 0.16 0.17 0.15 0.11 0.05 0.05 0.04 0.01 0.02 0.04
0.35 0.26 0.21 0.21 0.13 0.10 0.09 0.09 0.08 0.08 0.10 0.09 0.11 0.13 0.19 0.23 0.24 0.23 0.27 0.33 0.38 0.42 0.45 0.43 0.35 0.33 0.35 0.39 0.41 0.48 0.55 0.57 0.55 0.45 0.41 0.53 0.48 0.36 0.24 0.19 0.17 0.17 0.14 0.12 0.08 0.05 0.04 0.04 0.04
0.26 0.17 0.14 0.14 0.13 0.12 0.10 0.10 0.08 0.09 0.10 0.09 0.12 0.18 0.24 0.27 0.26 0.26 0.27 0.30 0.35 0.39 0.45 0.46 0.42 0.37 0.36 0.37 0.37 0.37 0.45 0.49 0.49 0.49 0.41 0.41 0.43 0.38 0.34 0.27 0.25 0.25 0.22 0.22 0.16 0.09 0.07 0.05 0.04
0.19 0.15 0.14 0.12 0.12 0.14 0.13 0.10 0.10 0.12 0.11 0.09 0.11 0.16 0.19 0.24 0.28 0.29 0.29 0.31 0.31 0.34 0.42 0.44 0.45 0.47 0.45 0.41 0.39 0.39 0.44 0.50 0.50 0.44 0.40 0.42 0.41 0.40 0.43 0.43 0.40 0.38 0.34 0.39 0.33 0.16 0.10 0.08 0.04
0.16 0.16 0.15 0.13 0.12 0.15 0.13 0.12 0.13 0.15 0.13 0.11 0.11 0.12 0.14 0.18 0.21 0.27 0.32 0.32 0.33 0.38 0.43 0.46 0.49 0.54 0.54 0.52 0.53 0.47 0.53 0.54 0.54 0.55 0.53 0.56 0.55 0.53 0.55 0.59 0.57 0.53 0.44 0.44 0.61 0.46 0.16 0.07 0.05
0.22 0.23 0.26 0.18 0.16 0.18 0.17 0.16 0.15 0.18 0.16 0.16 0.16 0.15 0.14 0.16 0.20 0.21 0.24 0.30 0.33 0.41 0.50 0.56 0.50 0.54 0.59 0.62 0.66 0.67 0.69 0.71 0.67 0.66 0.67 0.68 0.70 0.69 0.71 0.71 0.61 0.63 0.62 0.56 0.63 0.65 0.33 0.11 0.07
0.22 0.27 0.27 0.21 0.17 0.16 0.18 0.16 0.16 0.19 0.16 0.14 0.16 0.16 0.15 0.15 0.16 0.16 0.16 0.21 0.29 0.40 0.53 0.60 0.58 0.58 0.67 0.76 0.85 0.87 0.84 0.84 0.81 0.82 0.78 0.81 0.84 0.86 0.86 0.82 0.76 0.73 0.69 0.72 0.66 0.71 0.62 0.36 0.19
0.32 0.25 0.18 0.15 0.15 0.15 0.16 0.15 0.15 0.18 0.16 0.14 0.14 0.14 0.13 0.12 0.15 0.15 0.13 0.14 0.20 0.32 0.44 0.59 0.72 0.83 0.90 0.97 1.06 1.11 1.04 0.98 1.02 1.05 1.03 1.04 1.09 1.05 1.07 1.06 1.04 1.03 0.95 0.88 0.76 0.81 0.77 0.54 0.35
0.25 0.21 0.17 0.12 0.12 0.10 0.10 0.11 0.12 0.15 0.16 0.14 0.12 0.12 0.11 0.09 0.09 0.09 0.09 0.13 0.20 0.29 0.37 0.54 0.88 1.30 1.48 1.39 1.37 1.46 1.57 1.57 1.48 1.46 1.43 1.48 1.48 1.47 1.50 1.44 1.36 1.27 1.18 1.18 1.08 1.15 1.39 0.90 0.57
0.24 0.26 0.22 0.15 0.11 0.09 0.07 0.07 0.08 0.10 0.12 0.12 0.12 0.13 0.13 0.10 0.08 0.06 0.08 0.11 0.17 0.32 0.47 0.59 0.85 1.28 1.48 1.60 1.72 1.94 2.14 2.05 1.93 1.90 1.86 1.92 1.93 2.08 2.05 2.01 1.94 1.78 1.70 1.67 1.54 1.48 1.65 1.21 0.83
0.27 0.29 0.25 0.20 0.12 0.09 0.07 0.06 0.07 0.09 0.09 0.09 0.11 0.13 0.14 0.12 0.11 0.11 0.10 0.14 0.18 0.27 0.39 0.53 0.70 0.99 1.31 1.58 1.87 2.19 2.43 2.41 2.30 2.13 2.10 2.14 2.19 2.33 2.45 2.42 2.42 2.21 2.03 1.99 1.90 1.77 1.77 1.69 1.29
0.21 0.15 0.11 0.09 0.10 0.09 0.07 0.10 0.10 0.12 0.12 0.12 0.13 0.13 0.15 0.15 0.14 0.16 0.16 0.16 0.18 0.23 0.30 0.43 0.61 0.86 1.11 1.35 1.77 2.23 2.54 2.65 2.57 2.45 2.38 2.34 2.36 2.39 2.56 2.59 2.66 2.48 2.32 2.23 2.14 1.91 1.87 2.02 1.81
0.10 0.06 0.06 0.07 0.08 0.07 0.06 0.09 0.12 0.13 0.16 0.16 0.16 0.16 0.16 0.16 0.17 0.20 0.20 0.22 0.24 0.22 0.26 0.38 0.54 0.77 1.01 1.24 1.61 2.03 2.32 2.53 2.69 2.51 2.38 2.39 2.41 2.39 2.48 2.64 2.71 2.57 2.42 2.34 2.43 2.26 2.13 1.94 1.76
0.05 0.06 0.05 0.05 0.07 0.07 0.05 0.11 0.19 0.18 0.17 0.15 0.14 0.15 0.17 0.19 0.24 0.27 0.35 0.39 0.39 0.33 0.36 0.45 0.53 0.67 0.84 0.98 1.22 1.46 1.80 2.06 2.41 2.39 2.32 2.43 2.40 2.22 2.12 2.32 2.52 2.47 2.46 2.45 2.50 2.51 2.42 2.29 2.15
0.03 0.08 0.12 0.12 0.13 0.11 0.08 0.18 0.29 0.25 0.19 0.18 0.18 0.18 0.20 0.22 0.26 0.34 0.47 0.51 0.53 0.46 0.43 0.45 0.55 0.60 0.66 0.77 0.89 1.05 1.31 1.47 1.82 2.13 2.13 2.04 2.04 1.98 1.94 1.98 2.08 2.11 2.22 2.37 2.59 2.52 2.36 2.28 2.26
0.04 0.09 0.17 0.19 0.19 0.19 0.19 0.34 0.42 0.31 0.23 0.21 0.19 0.20 0.23 0.27 0.34 0.50 0.65 0.68 0.68 0.60 0.53 0.52 0.60 0.63 0.64 0.70 0.71 0.81 0.97 1.07 1.21 1.39 1.53 1.56 1.57 1.70 1.69 1.74 1.84 1.90 2.01 2.12 2.24 2.26 2.23 2.14 2.05
0.07 0.10 0.13 0.20 0.18 0.20 0.30 0.46 0.43 0.27 0.25 0.27 0.27 0.28 0.37 0.47 0.55 0.67 0.81 0.83 0.75 0.69 0.61 0.60 0.64 0.72 0.72 0.72 0.73 0.82 0.87 0.90 1.00 1.01 1.13 1.31 1.32 1.32 1.34 1.39 1.52 1.68 1.81 1.90 2.04 2.08 2.06 2.05 1.99
0.06 0.10 0.17 0.28 0.33 0.31 0.33 0.45 0.47 0.37 0.37 0.37 0.42 0.44 0.55 0.66 0.74 0.82 0.95 0.97 0.83 0.71 0.61 0.59 0.61 0.73 0.91 1.03 0.98 0.92 0.98 1.05 1.27 1.29 1.11 1.09 1.23 1.24 1.22 1.21 1.30 1.49 1.66 1.74 1.80 1.87 1.95 1.93 1.91
0.14 0.21 0.27 0.35 0.38 0.49 0.58 0.63 0.58 0.57 0.58 0.59 0.62 0.65 0.74 0.86 0.87 0.84 0.91 0.98 0.87 0.68 0.61 0.56 0.56 0.67 0.82 0.86 0.92 0.91 0.94 1.04 1.32 1.53 1.45 1.25 1.20 1.19 1.14 1.07 1.14 1.27 1.39 1.50 1.57 1.64 1.68 1.69 1.77
0.23 0.34 0.50 0.69 0.66 0.62 0.75 0.79 0.64 0.58 0.62 0.64 0.64 0.63 0.67 0.79 0.80 0.81 0.83 0.80 0.70 0.56 0.49 0.47 0.48 0.59 0.71 0.70 0.76 0.82 0.82 0.91 1.04 1.15 1.15 1.06 0.95 0.90 0.93 0.99 0.98 1.05 1.18 1.25 1.26 1.33 1.41 1.45 1.51

GEFSSGP_prec_meanprecacc_090.txt.gz
Total_Precipitation_Accumulation
0.08 0.24 0.39 0.47 0.79 0.44 0.06 0.03 0.03 0.02 0.02 0.02 0.01 0.01 0.02 0.06 0.19 0.44 0.21 0.09 0.06 0.06 0.17 0.22 0.32 0.32 0.27 0.23 0.31 0.41 0.52 0.65 0.65 0.58 0.49 0.31 0.26 0.21 0.22 0.22 0.24 0.25 0.21 0.25 0.29 0.34 0.33 0.29 0.26
0.19 0.39 0.53 0.93 0.83 0.15 0.05 0.05 0.06 0.05 0.04 0.04 0.01 0.01 0.01 0.02 0.03 0.10 0.18 0.19 0.07 0.04 0.12 0.20 0.27 0.32 0.29 0.32 0.45 0.51 0.56 0.62 0.58 0.48 0.35 0.27 0.23 0.22 0.22 0.28 0.30 0.25 0.21 0.24 0.29 0.39 0.35 0.28 0.26
0.23 0.37 0.63 0.93 0.32 0.07 0.08 0.09 0.10 0.08 0.05 0.03 0.01 0.01 0.01 0.04 0.06 0.11 0.15 0.15 0.08 0.06 0.13 0.22 0.29 0.32 0.32 0.37 0.47 0.54 0.54 0.51 0.49 0.44 0.32 0.25 0.22 0.20 0.23 0.27 0.30 0.26 0.19 0.17 0.23 0.28 0.26 0.25 0.20
0.28 0.54 0.76 0.53 0.13 0.09 0.09 0.12 0.11 0.06 0.03 0.02 0.02 0.01 0.03 0.06 0.09 0.12 0.16 0.16 0.15 0.15 0.19 0.22 0.35 0.36 0.35 0.47 0.52 0.54 0.47 0.41 0.44 0.43 0.35 0.27 0.19 0.19 0.25 0.24 0.21 0.16 0.12 0.13 0.19 0.23 0.22 0.21 0.15
0.33 0.73 0.83 0.38 0.18 0.17 0.16 0.11 0.06 0.04 0.02 0.03 0.03 0.03 0.09 0.10 0.14 0.16 0.22 0.24 0.26 0.32 0.38 0.32 0.40 0.37 0.35 0.47 0.55 0.54 0.56 0.53 0.52 0.49 0.41 0.36 0.25 0.22 0.23 0.18 0.12 0.07 0.08 0.13 0.26 0.30 0.19 0.16 0.14
0.55 0.95 1.18 0.62 0.32 0.25 0.21 0.15 0.07 0.05 0.04 0.04 0.05 0.09 0.15 0.16 0.19 0.23 0.30 0.37 0.40 0.39 0.38 0.39 0.48 0.45 0.43 0.50 0.53 0.48 0.52 0.63 0.64 0.55 0.51 0.66 0.45 0.29 0.19 0.13 0.06 0.03 0.06 0.10 0.19 0.24 0.17 0.15 0.19
0.66 1.10 1.05 0.59 0.35 0.38 0.27 0.15 0.09 0.08 0.08 0.09 0.08 0.14 0.18 0.22 0.21 0.25 0.31 0.37 0.39 0.37 0.37 0.38 0.45 0.50 0.50 0.57 0.62 0.59 0.60 0.68 0.73 0.60 0.58 0.65 0.41 0.21 0.14 0.10 0.06 0.03 0.03 0.06 0.09 0.15 0.17 0.17 0.22
0.30 0.62 0.72 0.56 0.42 0.38 0.24 0.11 0.07 0.06 0.07 0.09 0.10 0.15 0.32 0.36 0.27 0.32 0.37 0.41 0.42 0.42 0.42 0.38 0.42 0.54 0.66 0.67 0.64 0.71 0.76 0.72 0.78 0.69 0.64 0.54 0.28 0.16 0.12 0.08 0.07 0.06 0.05 0.06 0.09 0.13 0.14 0.15 0.18
0.29 0.51 0.80 0.78 0.48 0.32 0.22 0.14 0.08 0.07 0.07 0.08 0.08 0.11 0.19 0.27 0.30 0.38 0.44 0.43 0.46 0.47 0.49 0.46 0.42 0.46 0.60 0.71 0.64 0.83 0.91 0.85 0.75 0.71 0.69 0.54 0.30 0.21 0.17 0.11 0.11 0.10 0.11 0.10 0.11 0.13 0.10 0.08 0.09
0.41 0.62 0.85 0.63 0.40 0.23 0.18 0.14 0.10 0.09 0.12 0.09 0.07 0.11 0.15 0.22 0.30 0.39 0.42 0.45 0.47 0.48 0.44 0.45 0.43 0.42 0.43 0.52 0.78 1.12 0.96 0.84 0.65 0.66 0.62 0.58 0.51 0.43 0.28 0.24 0.26 0.24 0.19 0.15 0.14 0.13 0.06 0.03 0.04
0.39 0.44 0.49 0.51 0.30 0.16 0.11 0.11 0.11 0.09 0.11 0.11 0.10 0.13 0.16 0.22 0.27 0.29 0.33 0.37 0.42 0.44 0.44 0.42 0.39 0.38 0.41 0.55 0.69 0.90 0.97 0.93 0.79 0.67 0.65 0.70 0.62 0.45 0.31 0.25 0.26 0.28 0.26 0.17 0.13 0.09 0.03 0.02 0.05
0.36 0.27 0.23 0.26 0.17 0.14 0.12 0.11 0.10 0.09 0.11 0.10 0.12 0.15 0.21 0.25 0.26 0.25 0.30 0.38 0.43 0.46 0.49 0.47 0.40 0.40 0.42 0.47 0.48 0.57 0.64 0.68 0.65 0.58 0.57 0.68 0.61 0.49 0.38 0.35 0.29 0.26 0.24 0.22 0.18 0.12 0.07 0.05 0.05
0.27 0.18 0.16 0.17 0.16 0.15 0.13 0.12 0.09 0.10 0.11 0.10 0.13 0.20 0.26 0.28 0.27 0.28 0.30 0.33 0.38 0.42 0.48 0.49 0.46 0.42 0.42 0.43 0.43 0.42 0.52 0.56 0.58 0.60 0.54 0.56 0.57 0.53 0.48 0.40 0.38 0.37 0.33 0.32 0.24 0.16 0.12 0.09 0.06
0.20 0.16 0.15 0.14 0.14 0.17 0.14 0.11 0.11 0.13 0.12 0.10 0.12 0.17 0.20 0.25 0.29 0.30 0.32 0.33 0.33 0.36 0.44 0.46 0.47 0.49 0.47 0.44 0.44 0.46 0.53 0.58 0.56 0.51 0.48 0.51 0.50 0.50 0.55 0.56 0.53 0.49 0.45 0.50 0.43 0.24 0.17 0.13 0.08
0.17 0.17 0.16 0.15 0.14 0.17 0.15 0.13 0.14 0.16 0.14 0.12 0.12 0.13 0.15 0.19 0.23 0.29 0.33 0.33 0.34 0.38 0.44 0.46 0.49 0.55 0.55 0.53 0.55 0.50 0.57 0.59 0.58 0.59 0.58 0.61 0.60 0.60 0.66 0.70 0.68 0.64 0.56 0.56 0.73 0.57 0.25 0.16 0.12
0.24 0.25 0.27 0.19 0.18 0.19 0.18 0.16 0.16 0.19 0.17 0.17 0.16 0.15 0.15 0.17 0.20 0.21 0.25 0.30 0.33 0.41 0.50 0.56 0.50 0.54 0.59 0.62 0.67 0.68 0.70 0.71 0.67 0.67 0.69 0.71 0.73 0.75 0.78 0.79 0.70 0.74 0.74 0.70 0.80 0.81 0.43 0.20 0.14
0.24 0.29 0.28 0.21 0.18 0.17 0.18 0.17 0.17 0.20 0.17 0.15 0.17 0.16 0.15 0.15 0.16 0.16 0.17 0.21 0.29 0.40 0.53 0.60 0.58 0.58 0.67 0.77 0.85 0.87 0.84 0.84 0.82 0.84 0.79 0.82 0.85 0.90 0.93 0.91 0.86 0.84 0.82 0.86 0.81 0.90 0.78 0.46 0.27
0.32 0.25 0.19 0.16 0.16 0.15 0.16 0.16 0.16 0.18 0.16 0.14 0.14 0.14 0.13 0.12 0.15 0.15 0.13 0.14 0.20 0.32 0.44 0.59 0.72 0.83 0.90 0.97 1.06 1.11 1.04 0.98 1.02 1.06 1.03 1.05 1.10 1.06 1.09 1.10 1.10 1.13 1.07 1.00 0.89 0.96 0.95 0.68 0.49
0.25 0.21 0.17 0.12 0.12 0.10 0.10 0.11 0.13 0.16 0.16 0.14 0.12 0.12 0.11 0.09 0.09 0.09 0.09 0.14 0.20 0.29 0.37 0.54 0.88 1.30 1.48 1.39 1.37 1.46 1.58 1.57 1.48 1.46 1.44 1.49 1.48 1.48 1.50 1.46 1.41 1.33 1.25 1.27 1.20 1.31 1.55 1.05 0.73
0.24 0.26 0.22 0.16 0.11 0.09 0.07 0.07 0.08 0.10 0.12 0.13 0.12 0.13 0.13 0.10 0.08 0.06 0.08 0.11 0.17 0.32 0.47 0.59 0.85 1.29 1.49 1.60 1.72 1.94 2.14 2.05 1.93 1.90 1.86 1.93 1.93 2.08 2.06 2.02 1.96 1.81 1.76 1.75 1.64 1.59 1.78 1.36 1.01
0.28 0.29 0.25 0.20 0.12 0.09 0.07 0.06 0.07 0.09 0.09 0.09 0.11 0.14 0.14 0.12 0.11 0.11 0.10 0.14 0.18 0.27 0.39 0.53 0.71 1.00 1.32 1.58 1.87 2.19 2.43 2.41 2.30 2.13 2.11 2.15 2.19 2.33 2.46 2.44 2.45 2.25 2.07 2.04 1.97 1.85 1.87 1.82 1.45
0.21 0.15 0.11 0.09 0.10 0.09 0.07 0.10 0.10 0.12 0.13 0.12 0.13 0.13 0.15 0.15 0.14 0.16 0.16 0.16 0.18 0.23 0.30 0.43 0.61 0.86 1.11 1.35 1.78 2.23 2.55 2.66 2.57 2.46 2.40 2.35 2.37 2.39 2.56 2.60 2.68 2.50 2.35 2.27 2.19 1.96 1.95 2.14 1.95
0.10 0.06 0.06 0.07 0.08 0.07 0.06 0.09 0.12 0.13 0.16 0.16 0.16 0.16 0.16 0.16 0.17 0.20 0.20 0.22 0.24 0.22 0.26 0.38 0.54 0.77 1.02 1.24 1.61 2.04 2.33 2.56 2.72 2.53 2.40 2.41 2.43 2.41 2.50 2.65 2.73 2.59 2.45 2.37 2.47 2.30 2.19 2.03 1.89
0.05 0.06 0.05 0.05 0.07 0.07 0.05 0.11 0.19 0.18 0.17 0.15 0.14 0.15 0.17 0.19 0.24 0.27 0.35 0.39 0.39 0.33 0.36 0.45 0.54 0.67 0.84 0.98 1.22 1.46 1.81 2.09 2.44 2.42 2.34 2.46 2.43 2.27 2.18 2.36 2.54 2.49 2.50 2.49 2.54 2.56 2.48 2.38 2.27
0.03 0.08 0.12 0.12 0.13 0.11 0.08 0.18 0.29 0.25 0.19 0.18 0.18 0.18 0.20 0.22 0.26 0.34 0.47 0.51 0.53 0.46 0.43 0.45 0.55 0.60 0.66 0.77 0.90 1.06 1.33 1.51 1.86 2.18 2.16 2.07 2.09 2.06 2.05 2.06 2.11 2.14 2.26 2.42 2.64 2.57 2.42 2.35 2.36
0.04 0.09 0.17 0.19 0.19 0.19 0.19 0.34 0.42 0.31 0.23 0.21 0.19 0.20 0.23 0.27 0.34 0.50 0.65 0.68 0.68 0.60 0.53 0.52 0.60 0.63 0.65 0.70 0.72 0.82 0.98 1.10 1.25 1.45 1.58 1.60 1.62 1.78 1.77 1.82 1.90 1.95 2.05 2.16 2.29 2.31 2.28 2.21 2.14
0.07 0.10 0.13 0.20 0.18 0.20 0.30 0.46 0.43 0.27 0.25 0.27 0.27 0.28 0.37 0.47 0.55 0.67 0.81 0.83 0.75 0.69 0.61 0.60 0.64 0.73 0.73 0.72 0.73 0.83 0.88 0.91 1.01 1.03 1.18 1.36 1.37 1.39 1.42 1.46 1.59 1.73 1.85 1.93 2.08 2.13 2.12 2.11 2.08
0.06 0.10 0.17 0.28 0.33 0.31 0.33 0.45 0.47 0.37 0.37 0.37 0.42 0.44 0.55 0.66 0.74 0.82 0.95 0.97 0.83 0.71 0.61 0.59 0.61 0.73 0.92 1.03 0.98 0.93 0.99 1.06 1.28 1.30 1.13 1.11 1.26 1.30 1.28 1.26 1.34 1.53 1.69 1.77 1.83 1.91 2.00 1.99 1.99
0.14 0.21 0.27 0.35 0.38 0.49 0.58 0.63 0.58 0.57 0.58 0.59 0.62 0.65 0.74 0.86 0.87 0.84 0.91 0.98 0.87 0.68 0.61 0.56 0.56 0.67 0.82 0.86 0.93 0.91 0.95 1.05 1.33 1.54 1.47 1.27 1.24 1.24 1.20 1.11 1.16 1.29 1.41 1.52 1.61 1.68 1.72 1.73 1.83
0.23 0.34 0.50 0.69 0.66 0.62 0.75 0.79 0.64 0.58 0.62 0.64 0.64 0.63 0.67 0.79 0.80 0.81 0.83 0.80 0.70 0.56 0.49 0.47 0.48 0.59 0.71 0.70 0.76 0.82 0.83 0.92 1.04 1.16 1.17 1.09 0.98 0.93 0.97 1.02 1.01 1.08 1.21 1.28 1.30 1.37 1.44 1.49 1.57

GEFSSGP_prec_meanprecacc_096.txt.gz
Total_Precipitation_Accumulation
0.09 0.26 0.41 0.48 0.80 0.45 0.08 0.05 0.06 0.06 0.05 0.03 0.02 0.03 0.05 0.09 0.23 0.50 0.28 0.11 0.06 0.07 0.18 0.25 0.39 0.41 0.35 0.31 0.40 0.51 0.62 0.73 0.74 0.67 0.56 0.36 0.29 0.23 0.23 0.23 0.25 0.25 0.21 0.26 0.30 0.35 0.34 0.30 0.26
0.19 0.39 0.54 0.93 0.85 0.17 0.07 0.08 0.10 0.09 0.07 0.07 0.03 0.02 0.03 0.05 0.08 0.18 0.26 0.23 0.08 0.06 0.14 0.23 0.35 0.43 0.40 0.44 0.56 0.62 0.67 0.71 0.66 0.57 0.43 0.32 0.28 0.25 0.25 0.31 0.32 0.26 0.22 0.25 0.29 0.40 0.36 0.29 0.26
0.23 0.37 0.63 0.93 0.34 0.09 0.11 0.13 0.14 0.11 0.07 0.05 0.03 0.02 0.03 0.07 0.11 0.21 0.25 0.20 0.11 0.08 0.16 0.26 0.37 0.44 0.45 0.50 0.59 0.66 0.66 0.62 0.57 0.52 0.40 0.32 0.27 0.24 0.26 0.30 0.32 0.28 0.20 0.18 0.24 0.28 0.27 0.26 0.20
0.28 0.54 0.76 0.54 0.15 0.11 0.13 0.17 0.14 0.08 0.04 0.03 0.02 0.03 0.05 0.08 0.15 0.23 0.25 0.23 0.20 0.19 0.23 0.28 0.43 0.47 0.46 0.58 0.63 0.65 0.58 0.51 0.54 0.51 0.42 0.33 0.24 0.23 0.28 0.26 0.23 0.17 0.13 0.14 0.20 0.23 0.23 0.22 0.15
0.34 0.73 0.83 0.40 0.21 0.19 0.17 0.13 0.08 0.06 0.05 0.04 0.04 0.05 0.12 0.12 0.19 0.26 0.30 0.30 0.31 0.38 0.44 0.40 0.50 0.47 0.46 0.59 0.67 0.66 0.67 0.64 0.64 0.61 0.53 0.45 0.33 0.28 0.28 0.22 0.15 0.09 0.10 0.15 0.27 0.31 0.21 0.17 0.15
0.55 0.96 1.20 0.65 0.36 0.27 0.22 0.15 0.08 0.06 0.05 0.05 0.07 0.11 0.17 0.19 0.26 0.33 0.38 0.44 0.47 0.47 0.47 0.47 0.59 0.57 0.55 0.61 0.65 0.60 0.65 0.76 0.78 0.69 0.65 0.79 0.57 0.40 0.28 0.20 0.12 0.07 0.09 0.13 0.21 0.25 0.18 0.16 0.20
0.67 1.11 1.06 0.60 0.37 0.42 0.28 0.15 0.10 0.10 0.10 0.10 0.09 0.17 0.21 0.27 0.26 0.30 0.37 0.43 0.44 0.43 0.44 0.45 0.53 0.59 0.60 0.68 0.76 0.75 0.76 0.84 0.89 0.75 0.74 0.80 0.54 0.33 0.23 0.19 0.14 0.10 0.08 0.10 0.12 0.16 0.18 0.19 0.24
0.30 0.63 0.73 0.57 0.44 0.42 0.25 0.11 0.07 0.07 0.08 0.10 0.11 0.16 0.34 0.38 0.31 0.36 0.41 0.46 0.48 0.49 0.50 0.46 0.50 0.62 0.74 0.76 0.75 0.85 0.91 0.89 0.94 0.82 0.77 0.69 0.43 0.28 0.23 0.17 0.15 0.15 0.13 0.13 0.14 0.16 0.16 0.16 0.20
0.30 0.52 0.82 0.80 0.49 0.34 0.23 0.15 0.09 0.07 0.08 0.09 0.09 0.11 0.20 0.28 0.32 0.43 0.50 0.50 0.54 0.56 0.58 0.54 0.48 0.51 0.65 0.76 0.71 0.92 1.01 0.98 0.90 0.85 0.83 0.71 0.44 0.34 0.29 0.20 0.21 0.20 0.21 0.21 0.21 0.19 0.14 0.10 0.11
0.42 0.64 0.86 0.64 0.41 0.25 0.19 0.15 0.11 0.09 0.12 0.10 0.08 0.11 0.16 0.24 0.33 0.42 0.45 0.49 0.53 0.54 0.49 0.49 0.48 0.46 0.48 0.56 0.82 1.16 1.03 0.94 0.78 0.80 0.74 0.72 0.64 0.54 0.39 0.34 0.38 0.37 0.32 0.29 0.26 0.23 0.14 0.06 0.05
0.40 0.45 0.49 0.52 0.31 0.17 0.13 0.12 0.11 0.09 0.12 0.11 0.11 0.13 0.17 0.23 0.29 0.30 0.35 0.40 0.44 0.48 0.47 0.44 0.42 0.41 0.44 0.58 0.71 0.92 1.00 0.99 0.86 0.74 0.73 0.80 0.73 0.58 0.43 0.34 0.36 0.39 0.40 0.33 0.27 0.20 0.11 0.07 0.08
0.37 0.28 0.23 0.26 0.18 0.14 0.13 0.11 0.10 0.10 0.12 0.10 0.12 0.15 0.21 0.26 0.27 0.26 0.31 0.39 0.44 0.47 0.51 0.50 0.42 0.42 0.45 0.50 0.50 0.59 0.66 0.70 0.68 0.62 0.63 0.75 0.69 0.60 0.53 0.48 0.40 0.38 0.37 0.38 0.34 0.25 0.17 0.12 0.09
0.27 0.19 0.16 0.17 0.16 0.15 0.14 0.13 0.11 0.11 0.11 0.10 0.14 0.20 0.26 0.28 0.28 0.29 0.30 0.34 0.39 0.42 0.48 0.49 0.46 0.43 0.43 0.44 0.44 0.43 0.54 0.57 0.59 0.62 0.59 0.61 0.64 0.61 0.56 0.50 0.51 0.51 0.46 0.45 0.39 0.29 0.23 0.17 0.11
0.20 0.16 0.15 0.14 0.14 0.17 0.15 0.12 0.11 0.14 0.12 0.11 0.13 0.17 0.20 0.25 0.29 0.30 0.32 0.33 0.33 0.36 0.44 0.46 0.47 0.49 0.47 0.44 0.45 0.47 0.54 0.59 0.58 0.52 0.51 0.55 0.55 0.55 0.61 0.62 0.60 0.60 0.58 0.61 0.55 0.35 0.29 0.26 0.18
0.18 0.17 0.17 0.15 0.14 0.18 0.15 0.14 0.14 0.16 0.14 0.13 0.12 0.13 0.15 0.19 0.23 0.29 0.33 0.33 0.34 0.38 0.44 0.46 0.49 0.55 0.55 0.53 0.55 0.51 0.57 0.59 0.59 0.60 0.60 0.64 0.63 0.64 0.69 0.75 0.74 0.71 0.66 0.67 0.84 0.69 0.37 0.28 0.23
0.25 0.26 0.29 0.19 0.18 0.19 0.19 0.17 0.16 0.19 0.17 0.17 0.16 0.15 0.15 0.17 0.20 0.22 0.25 0.30 0.33 0.41 0.50 0.57 0.51 0.54 0.59 0.62 0.67 0.68 0.70 0.72 0.68 0.68 0.70 0.72 0.75 0.77 0.82 0.84 0.74 0.79 0.82 0.81 0.92 0.94 0.58 0.34 0.28
0.26 0.30 0.29 0.22 0.18 0.17 0.19 0.17 0.17 0.20 0.17 0.15 0.17 0.16 0.15 0.15 0.16 0.16 0.17 0.21 0.29 0.41 0.53 0.61 0.58 0.58 0.67 0.77 0.85 0.87 0.84 0.85 0.83 0.84 0.80 0.82 0.86 0.92 0.96 0.94 0.90 0.89 0.87 0.93 0.91 1.03 0.92 0.64 0.44
0.33 0.26 0.19 0.16 0.16 0.16 0.17 0.16 0.16 0.19 0.16 0.14 0.14 0.14 0.13 0.12 0.15 0.15 0.13 0.14 0.20 0.32 0.45 0.59 0.72 0.83 0.90 0.97 1.06 1.11 1.04 0.99 1.03 1.07 1.04 1.05 1.10 1.07 1.11 1.11 1.13 1.18 1.13 1.06 0.97 1.06 1.07 0.83 0.69
0.25 0.22 0.18 0.12 0.13 0.11 0.10 0.11 0.13 0.16 0.17 0.15 0.12 0.12 0.11 0.10 0.09 0.09 0.09 0.14 0.20 0.29 0.38 0.54 0.88 1.30 1.48 1.39 1.37 1.46 1.58 1.58 1.49 1.47 1.44 1.49 1.49 1.48 1.51 1.47 1.43 1.36 1.28 1.31 1.26 1.39 1.66 1.18 0.89
0.24 0.26 0.22 0.16 0.11 0.09 0.07 0.07 0.08 0.10 0.12 0.13 0.12 0.13 0.13 0.11 0.08 0.06 0.08 0.11 0.17 0.32 0.47 0.59 0.85 1.29 1.49 1.60 1.72 1.94 2.14 2.06 1.94 1.92 1.87 1.94 1.94 2.09 2.07 2.03 1.98 1.83 1.78 1.78 1.68 1.66 1.86 1.48 1.17
0.28 0.29 0.25 0.20 0.12 0.09 0.07 0.06 0.07 0.09 0.09 0.09 0.11 0.14 0.14 0.12 0.11 0.11 0.10 0.14 0.18 0.27 0.39 0.53 0.71 1.00 1.32 1.58 1.87 2.19 2.43 2.42 2.31 2.14 2.12 2.16 2.21 2.35 2.47 2.45 2.47 2.27 2.09 2.07 2.00 1.91 1.95 1.93 1.59
0.21 0.15 0.11 0.09 0.10 0.09 0.07 0.10 0.10 0.12 0.13 0.12 0.13 0.13 0.15 0.15 0.14 0.16 0.16 0.16 0.18 0.23 0.30 0.43 0.61 0.87 1.11 1.35 1.78 2.23 2.55 2.67 2.59 2.47 2.42 2.37 2.39 2.42 2.60 2.62 2.70 2.53 2.38 2.29 2.22 2.01 2.03 2.24 2.07
0.11 0.07 0.06 0.07 0.08 0.07 0.06 0.09 0.12 0.13 0.16 0.16 0.16 0.16 0.16 0.16 0.17 0.20 0.20 0.22 0.24 0.22 0.26 0.38 0.54 0.78 1.02 1.24 1.61 2.04 2.34 2.57 2.74 2.55 2.42 2.43 2.45 2.45 2.55 2.69 2.76 2.62 2.48 2.40 2.50 2.34 2.25 2.11 1.98
0.06 0.06 0.05 0.05 0.07 0.07 0.05 0.11 0.19 0.18 0.17 0.15 0.14 0.15 0.17 0.19 0.24 0.27 0.35 0.39 0.39 0.33 0.36 0.45 0.54 0.67 0.84 0.99 1.22 1.47 1.82 2.12 2.47 2.44 2.37 2.48 2.45 2.31 2.23 2.40 2.59 2.53 2.53 2.52 2.57 2.59 2.52 2.44 2.35
0.03 0.08 0.12 0.12 0.13 0.11 0.08 0.18 0.29 0.25 0.19 0.18 0.18 0.18 0.20 0.22 0.26 0.34 0.47 0.51 0.53 0.46 0.43 0.45 0.55 0.60 0.66 0.77 0.90 1.06 1.33 1.53 1.90 2.21 2.19 2.10 2.13 2.12 2.11 2.14 2.17 2.18 2.29 2.44 2.67 2.61 2.46 2.41 2.43
0.04 0.09 0.17 0.19 0.19 0.19 0.19 0.34 0.42 0.31 0.23 0.21 0.19 0.20 0.23 0.27 0.34 0.50 0.65 0.68 0.68 0.60 0.53 0.52 0.60 0.63 0.65 0.70 0.72 0.82 0.98 1.11 1.28 1.50 1.61 1.64 1.68 1.84 1.87 1.97 1.97 1.99 2.08 2.18 2.31 2.35 2.32 2.25 2.20
0.07 0.10 0.13 0.20 0.18 0.20 0.30 0.46 0.43 0.27 0.25 0.27 0.27 0.28 0.37 0.47 0.55 0.67 0.81 0.83 0.75 0.69 0.61 0.60 0.64 0.73 0.73 0.72 0.73 0.83 0.88 0.92 1.03 1.06 1.21 1.39 1.42 1.44 1.48 1.55 1.65 1.78 1.88 1.96 2.11 2.17 2.16 2.15 2.13
0.06 0.10 0.17 0.28 0.33 0.31 0.33 0.45 0.47 0.37 0.37 0.37 0.42 0.44 0.55 0.66 0.74 0.82 0.95 0.97 0.83 0.71 0.61 0.59 0.61 0.73 0.92 1.03 0.99 0.93 0.99 1.06 1.28 1.31 1.15 1.14 1.30 1.33 1.31 1.31 1.39 1.57 1.73 1.81 1.87 1.95 2.04 2.03 2.04
0.14 0.21 0.27 0.35 0.38 0.49 0.58 0.63 0.58 0.57 0.58 0.59 0.62 0.65 0.74 0.86 0.87 0.84 0.91 0.98 0.87 0.68 0.61 0.56 0.56 0.67 0.82 0.87 0.93 0.91 0.95 1.05 1.34 1.55 1.48 1.30 1.28 1.28 1.23 1.14 1.19 1.33 1.46 1.56 1.64 1.72 1.75 1.76 1.87
0.23 0.34 0.50 0.69 0.66 0.62 0.75 0.79 0.64 0.58 0.62 0.64 0.64 0.63 0.67 0.79 0.80 0.81 0.83 0.80 0.70 0.56 0.49 0.47 0.48 0.59 0.71 0.70 0.76 0.83 0.83 0.92 1.05 1.17 1.19 1.12 1.03 0.98 1.01 1.04 1.03 1.11 1.25 1.33 1.34 1.41 1.47 1.52 1.61

GEFSSGP_prec_meanprecacc_102.txt.gz
Total_Precipitation_Accumulation
0.10 0.28 0.48 0.61 1.01 0.65 0.19 0.13 0.09 0.09 0.08 0.04 0.03 0.04 0.08 0.15 0.32 0.66 0.44 0.16 0.08 0.09 0.20 0.27 0.42 0.44 0.39 0.35 0.44 0.55 0.66 0.78 0.79 0.73 0.64 0.45 0.38 0.29 0.28 0.27 0.28 0.27 0.23 0.28 0.31 0.36 0.35 0.31 0.27
0.21 0.44 0.62 1.09 1.10 0.38 0.21 0.16 0.15 0.12 0.09 0.07 0.03 0.02 0.04 0.07 0.11 0.27 0.37 0.28 0.10 0.06 0.15 0.25 0.38 0.47 0.45 0.49 0.61 0.67 0.72 0.76 0.71 0.61 0.49 0.41 0.37 0.33 0.33 0.37 0.37 0.30 0.25 0.28 0.31 0.41 0.37 0.29 0.26
0.25 0.41 0.71 1.08 0.48 0.23 0.23 0.19 0.16 0.11 0.07 0.06 0.04 0.02 0.04 0.10 0.16 0.29 0.34 0.22 0.12 0.10 0.18 0.30 0.43 0.49 0.51 0.56 0.65 0.73 0.74 0.69 0.63 0.57 0.46 0.40 0.36 0.33 0.35 0.38 0.40 0.34 0.25 0.22 0.27 0.31 0.28 0.26 0.20
0.32 0.60 0.85 0.66 0.24 0.15 0.17 0.19 0.14 0.09 0.05 0.03 0.03 0.04 0.08 0.11 0.21 0.33 0.31 0.25 0.23 0.24 0.29 0.33 0.48 0.51 0.50 0.62 0.69 0.72 0.64 0.57 0.60 0.58 0.49 0.42 0.33 0.32 0.36 0.34 0.30 0.23 0.19 0.19 0.23 0.26 0.25 0.23 0.15
0.38 0.81 0.98 0.54 0.31 0.22 0.18 0.13 0.08 0.07 0.06 0.04 0.04 0.08 0.18 0.18 0.23 0.30 0.33 0.32 0.34 0.41 0.48 0.44 0.54 0.51 0.50 0.63 0.72 0.73 0.74 0.70 0.71 0.69 0.60 0.53 0.42 0.36 0.36 0.29 0.20 0.13 0.15 0.20 0.31 0.34 0.23 0.19 0.15
0.63 1.04 1.36 0.79 0.45 0.31 0.23 0.15 0.09 0.07 0.06 0.05 0.07 0.15 0.22 0.26 0.30 0.37 0.40 0.45 0.48 0.49 0.49 0.50 0.61 0.58 0.57 0.65 0.69 0.65 0.69 0.81 0.83 0.75 0.72 0.86 0.64 0.47 0.34 0.25 0.17 0.12 0.13 0.17 0.25 0.29 0.21 0.18 0.22
0.74 1.19 1.14 0.65 0.44 0.48 0.30 0.15 0.10 0.10 0.10 0.11 0.10 0.21 0.27 0.34 0.29 0.33 0.38 0.43 0.45 0.44 0.46 0.47 0.54 0.61 0.63 0.71 0.79 0.78 0.81 0.90 0.94 0.79 0.78 0.85 0.59 0.38 0.29 0.25 0.20 0.16 0.14 0.16 0.17 0.20 0.21 0.21 0.25
0.32 0.66 0.79 0.63 0.49 0.48 0.27 0.11 0.07 0.07 0.08 0.10 0.11 0.19 0.38 0.42 0.31 0.37 0.41 0.46 0.48 0.50 0.51 0.47 0.52 0.64 0.77 0.79 0.78 0.87 0.94 0.92 0.98 0.86 0.81 0.74 0.47 0.32 0.30 0.23 0.21 0.20 0.19 0.21 0.21 0.22 0.21 0.19 0.21
0.31 0.57 0.89 0.85 0.53 0.37 0.24 0.16 0.09 0.07 0.08 0.09 0.09 0.12 0.21 0.28 0.32 0.43 0.50 0.50 0.55 0.56 0.58 0.55 0.49 0.52 0.67 0.79 0.73 0.93 1.03 1.00 0.93 0.89 0.88 0.76 0.48 0.38 0.37 0.31 0.32 0.29 0.29 0.29 0.28 0.27 0.21 0.14 0.13
0.43 0.70 0.90 0.66 0.42 0.26 0.20 0.15 0.11 0.10 0.13 0.11 0.08 0.11 0.16 0.24 0.33 0.42 0.45 0.50 0.53 0.54 0.49 0.50 0.48 0.47 0.49 0.57 0.83 1.18 1.04 0.95 0.79 0.82 0.79 0.79 0.71 0.61 0.44 0.43 0.49 0.48 0.43 0.39 0.34 0.31 0.21 0.10 0.07
0.41 0.46 0.50 0.52 0.31 0.18 0.13 0.12 0.11 0.10 0.15 0.12 0.11 0.13 0.17 0.23 0.29 0.30 0.35 0.40 0.44 0.48 0.47 0.44 0.42 0.41 0.44 0.59 0.72 0.94 1.02 1.00 0.87 0.75 0.75 0.83 0.77 0.64 0.50 0.43 0.46 0.50 0.50 0.43 0.39 0.32 0.18 0.11 0.10
0.38 0.28 0.24 0.27 0.18 0.14 0.14 0.12 0.11 0.11 0.13 0.11 0.12 0.15 0.21 0.26 0.28 0.27 0.31 0.39 0.44 0.47 0.51 0.50 0.42 0.42 0.45 0.50 0.50 0.59 0.67 0.72 0.70 0.63 0.64 0.77 0.72 0.65 0.61 0.58 0.51 0.51 0.50 0.53 0.49 0.41 0.29 0.21 0.16
0.28 0.20 0.17 0.17 0.16 0.15 0.14 0.13 0.11 0.11 0.11 0.10 0.14 0.20 0.26 0.29 0.28 0.29 0.31 0.34 0.39 0.43 0.48 0.50 0.47 0.43 0.43 0.44 0.44 0.43 0.54 0.58 0.60 0.65 0.62 0.64 0.67 0.65 0.62 0.58 0.62 0.62 0.57 0.58 0.55 0.45 0.36 0.29 0.21
0.22 0.17 0.17 0.14 0.14 0.17 0.15 0.12 0.11 0.14 0.12 0.11 0.13 0.18 0.20 0.26 0.30 0.31 0.32 0.33 0.34 0.36 0.44 0.46 0.47 0.49 0.47 0.45 0.45 0.47 0.54 0.59 0.59 0.53 0.52 0.57 0.58 0.59 0.66 0.70 0.69 0.70 0.69 0.75 0.70 0.48 0.44 0.41 0.29
0.18 0.18 0.18 0.15 0.15 0.18 0.15 0.14 0.14 0.17 0.14 0.13 0.12 0.13 0.15 0.19 0.23 0.29 0.33 0.33 0.34 0.38 0.44 0.46 0.49 0.55 0.55 0.53 0.55 0.51 0.58 0.60 0.59 0.61 0.60 0.64 0.65 0.67 0.74 0.81 0.81 0.80 0.75 0.77 0.98 0.81 0.53 0.46 0.38
0.25 0.27 0.31 0.20 0.19 0.21 0.20 0.18 0.16 0.20 0.18 0.17 0.16 0.15 0.15 0.17 0.20 0.22 0.25 0.30 0.33 0.41 0.50 0.57 0.51 0.54 0.60 0.62 0.67 0.68 0.70 0.72 0.69 0.69 0.71 0.72 0.76 0.78 0.85 0.88 0.80 0.86 0.90 0.91 1.05 1.08 0.74 0.53 0.48
0.26 0.32 0.31 0.23 0.19 0.19 0.20 0.17 0.17 0.20 0.17 0.16 0.17 0.16 0.15 0.15 0.16 0.16 0.17 0.21 0.29 0.41 0.53 0.61 0.58 0.58 0.68 0.77 0.86 0.87 0.85 0.86 0.84 0.85 0.81 0.84 0.87 0.93 0.98 0.97 0.94 0.95 0.95 1.01 1.00 1.16 1.08 0.83 0.66
0.34 0.27 0.20 0.18 0.17 0.17 0.17 0.16 0.16 0.19 0.17 0.15 0.14 0.14 0.13 0.12 0.15 0.15 0.13 0.14 0.20 0.32 0.45 0.59 0.72 0.83 0.91 0.98 1.07 1.13 1.07 1.01 1.05 1.09 1.06 1.07 1.12 1.08 1.12 1.13 1.16 1.24 1.20 1.14 1.05 1.17 1.22 1.00 0.90
0.27 0.23 0.18 0.13 0.13 0.11 0.10 0.11 0.13 0.16 0.17 0.15 0.12 0.13 0.12 0.10 0.10 0.09 0.09 0.14 0.20 0.29 0.38 0.54 0.88 1.30 1.49 1.40 1.38 1.48 1.60 1.60 1.52 1.50 1.48 1.53 1.52 1.51 1.54 1.50 1.46 1.40 1.33 1.37 1.34 1.51 1.79 1.33 1.08
0.25 0.27 0.23 0.16 0.12 0.09 0.07 0.07 0.08 0.10 0.12 0.13 0.12 0.13 0.13 0.11 0.08 0.06 0.08 0.11 0.17 0.32 0.47 0.59 0.85 1.29 1.50 1.61 1.73 1.95 2.16 2.08 1.97 1.95 1.91 1.98 1.99 2.13 2.11 2.08 2.02 1.88 1.84 1.83 1.74 1.76 1.99 1.63 1.37
0.28 0.29 0.25 0.20 0.12 0.09 0.07 0.06 0.07 0.09 0.09 0.09 0.11 0.14 0.14 0.12 0.11 0.11 0.10 0.14 0.18 0.27 0.39 0.53 0.71 1.00 1.32 1.59 1.88 2.20 2.44 2.44 2.34 2.18 2.15 2.21 2.26 2.40 2.52 2.51 2.52 2.31 2.14 2.12 2.05 1.98 2.04 2.05 1.78
0.21 0.15 0.11 0.09 0.10 0.09 0.07 0.10 0.10 0.12 0.13 0.12 0.13 0.13 0.15 0.15 0.14 0.16 0.16 0.16 0.18 0.23 0.30 0.43 0.61 0.87 1.11 1.36 1.79 2.24 2.56 2.68 2.61 2.50 2.44 2.41 2.42 2.46 2.65 2.67 2.75 2.58 2.44 2.35 2.27 2.07 2.11 2.35 2.21
0.11 0.07 0.06 0.07 0.08 0.07 0.06 0.09 0.12 0.13 0.16 0.16 0.16 0.16 0.16 0.16 0.17 0.20 0.20 0.22 0.24 0.22 0.26 0.38 0.54 0.78 1.02 1.25 1.62 2.05 2.35 2.59 2.76 2.59 2.45 2.47 2.48 2.49 2.61 2.74 2.81 2.67 2.54 2.46 2.56 2.41 2.32 2.20 2.10
0.06 0.06 0.05 0.05 0.07 0.07 0.05 0.11 0.19 0.18 0.17 0.15 0.14 0.15 0.17 0.19 0.24 0.27 0.35 0.39 0.39 0.33 0.36 0.45 0.54 0.68 0.84 0.99 1.23 1.48 1.83 2.13 2.49 2.48 2.41 2.52 2.49 2.37 2.29 2.46 2.64 2.58 2.58 2.58 2.64 2.65 2.59 2.52 2.47
0.03 0.08 0.12 0.12 0.13 0.11 0.08 0.18 0.29 0.25 0.19 0.18 0.18 0.18 0.20 0.22 0.26 0.34 0.47 0.51 0.53 0.46 0.43 0.45 0.55 0.61 0.67 0.78 0.91 1.07 1.34 1.55 1.93 2.25 2.23 2.14 2.17 2.18 2.18 2.23 2.24 2.24 2.34 2.50 2.73 2.67 2.53 2.49 2.54
0.04 0.09 0.17 0.20 0.19 0.19 0.19 0.34 0.42 0.31 0.23 0.21 0.19 0.20 0.23 0.27 0.34 0.50 0.65 0.68 0.68 0.60 0.53 0.52 0.60 0.63 0.65 0.70 0.73 0.83 0.99 1.12 1.30 1.53 1.65 1.68 1.72 1.90 1.96 2.07 2.06 2.06 2.13 2.24 2.38 2.41 2.38 2.32 2.29
0.07 0.10 0.13 0.20 0.18 0.20 0.30 0.46 0.43 0.27 0.25 0.27 0.27 0.28 0.37 0.47 0.55 0.67 0.81 0.83 0.75 0.69 0.61 0.60 0.64 0.73 0.73 0.72 0.74 0.83 0.89 0.93 1.05 1.09 1.24 1.42 1.45 1.47 1.54 1.62 1.74 1.87 1.95 2.03 2.18 2.24 2.22 2.23 2.19
0.06 0.10 0.17 0.28 0.33 0.31 0.33 0.45 0.47 0.37 0.37 0.37 0.42 0.44 0.55 0.66 0.74 0.82 0.95 0.97 0.83 0.71 0.61 0.59 0.61 0.73 0.92 1.04 0.99 0.93 1.00 1.07 1.30 1.33 1.17 1.17 1.34 1.38 1.38 1.39 1.47 1.66 1.81 1.88 1.94 2.02 2.11 2.10 2.11
0.14 0.21 0.27 0.35 0.38 0.49 0.58 0.63 0.58 0.57 0.58 0.59 0.62 0.65 0.74 0.86 0.87 0.84 0.91 0.98 0.87 0.68 0.61 0.56 0.56 0.67 0.83 0.87 0.93 0.92 0.97 1.06 1.35 1.56 1.50 1.32 1.31 1.34 1.30 1.20 1.26 1.41 1.55 1.64 1.73 1.79 1.82 1.83 1.94
0.23 0.34 0.50 0.69 0.66 0.62 0.75 0.79 0.64 0.58 0.62 0.64 0.64 0.63 0.67 0.79 0.80 0.81 0.83 0.80 0.70 0.56 0.49 0.47 0.48 0.59 0.71 0.70 0.77 0.84 0.85 0.94 1.07 1.18 1.21 1.14 1.06 1.02 1.06 1.09 1.09 1.17 1.33 1.41 1.43 1.48 1.54 1.59 1.68

GEFSSGP_prec_meanprecacc_108.txt.gz
Total_Precipitation_Accumulation
0.18 0.44 0.77 0.99 1.33 0.85 0.32 0.22 0.15 0.12 0.09 0.05 0.03 0.04 0.09 0.18 0.35 0.73 0.60 0.32 0.19 0.18 0.26 0.33 0.46 0.47 0.40 0.37 0.45 0.56 0.67 0.79 0.79 0.74 0.64 0.45 0.39 0.30 0.29 0.28 0.29 0.28 0.24 0.29 0.32 0.36 0.36 0.32 0.28
0.36 0.81 1.05 1.58 1.41 0.52 0.32 0.22 0.20 0.14 0.10 0.08 0.04 0.02 0.05 0.09 0.13 0.34 0.55 0.45 0.17 0.10 0.17 0.27 0.41 0.49 0.47 0.50 0.62 0.68 0.73 0.77 0.71 0.62 0.49 0.41 0.38 0.34 0.34 0.38 0.38 0.31 0.26 0.29 0.32 0.42 0.38 0.30 0.26
0.43 0.85 1.14 1.47 0.75 0.36 0.33 0.24 0.20 0.12 0.07 0.06 0.04 0.02 0.05 0.14 0.21 0.41 0.55 0.34 0.18 0.14 0.21 0.32 0.45 0.51 0.52 0.57 0.66 0.74 0.74 0.70 0.64 0.58 0.47 0.41 0.37 0.35 0.36 0.39 0.41 0.35 0.26 0.23 0.29 0.33 0.29 0.27 0.21
0.56 0.99 1.29 0.94 0.46 0.26 0.22 0.22 0.16 0.12 0.06 0.03 0.03 0.05 0.10 0.17 0.28 0.43 0.44 0.34 0.28 0.28 0.31 0.35 0.50 0.53 0.52 0.64 0.70 0.73 0.64 0.58 0.61 0.58 0.50 0.44 0.35 0.34 0.38 0.36 0.32 0.25 0.21 0.21 0.25 0.29 0.27 0.24 0.16
0.62 1.17 1.29 0.74 0.45 0.29 0.22 0.15 0.09 0.08 0.06 0.04 0.04 0.09 0.20 0.25 0.30 0.36 0.36 0.35 0.36 0.45 0.51 0.46 0.55 0.53 0.51 0.64 0.73 0.73 0.75 0.72 0.72 0.70 0.61 0.55 0.44 0.39 0.40 0.33 0.25 0.18 0.18 0.23 0.33 0.36 0.24 0.20 0.16
0.93 1.33 1.57 0.94 0.58 0.37 0.26 0.17 0.09 0.08 0.06 0.06 0.08 0.16 0.25 0.31 0.34 0.42 0.42 0.47 0.49 0.50 0.50 0.50 0.63 0.60 0.58 0.66 0.71 0.66 0.71 0.82 0.85 0.77 0.73 0.87 0.66 0.50 0.39 0.32 0.25 0.19 0.17 0.21 0.28 0.32 0.22 0.20 0.22
1.05 1.45 1.34 0.81 0.57 0.55 0.34 0.17 0.11 0.11 0.11 0.12 0.11 0.23 0.30 0.37 0.31 0.34 0.39 0.44 0.46 0.44 0.46 0.47 0.55 0.62 0.64 0.72 0.81 0.80 0.83 0.91 0.96 0.81 0.79 0.87 0.61 0.41 0.34 0.31 0.28 0.25 0.22 0.22 0.22 0.25 0.25 0.23 0.26
0.52 0.86 0.97 0.78 0.59 0.53 0.29 0.13 0.08 0.08 0.09 0.10 0.12 0.21 0.40 0.43 0.33 0.37 0.42 0.47 0.49 0.50 0.51 0.48 0.52 0.64 0.78 0.80 0.80 0.88 0.95 0.94 0.99 0.87 0.83 0.77 0.51 0.36 0.34 0.30 0.29 0.30 0.30 0.29 0.28 0.29 0.26 0.23 0.23
0.50 0.72 1.00 0.96 0.61 0.43 0.27 0.18 0.11 0.08 0.09 0.10 0.09 0.12 0.22 0.29 0.33 0.44 0.51 0.50 0.55 0.57 0.59 0.55 0.49 0.52 0.67 0.79 0.73 0.94 1.04 1.01 0.94 0.91 0.90 0.79 0.50 0.40 0.40 0.35 0.40 0.40 0.42 0.41 0.38 0.35 0.27 0.20 0.16
0.61 0.83 0.99 0.73 0.48 0.31 0.23 0.17 0.13 0.11 0.14 0.13 0.10 0.12 0.17 0.25 0.34 0.42 0.45 0.50 0.53 0.54 0.49 0.50 0.48 0.47 0.49 0.57 0.83 1.18 1.04 0.95 0.80 0.82 0.79 0.79 0.71 0.62 0.46 0.45 0.56 0.58 0.56 0.53 0.47 0.41 0.28 0.15 0.10
0.60 0.59 0.59 0.57 0.35 0.20 0.14 0.13 0.13 0.11 0.16 0.16 0.15 0.15 0.18 0.24 0.30 0.31 0.35 0.40 0.45 0.48 0.47 0.44 0.42 0.41 0.44 0.59 0.72 0.94 1.02 1.00 0.87 0.75 0.75 0.83 0.78 0.64 0.51 0.45 0.50 0.57 0.60 0.52 0.47 0.40 0.24 0.16 0.14
0.52 0.39 0.34 0.31 0.20 0.16 0.15 0.12 0.11 0.12 0.14 0.12 0.13 0.16 0.22 0.27 0.28 0.27 0.32 0.39 0.44 0.47 0.51 0.51 0.43 0.42 0.45 0.50 0.50 0.59 0.67 0.72 0.71 0.64 0.65 0.77 0.72 0.65 0.62 0.59 0.55 0.57 0.56 0.60 0.56 0.47 0.34 0.25 0.21
0.41 0.34 0.27 0.20 0.18 0.17 0.16 0.14 0.12 0.12 0.12 0.11 0.14 0.21 0.27 0.29 0.29 0.30 0.31 0.34 0.39 0.43 0.49 0.50 0.47 0.43 0.43 0.44 0.44 0.43 0.54 0.58 0.61 0.65 0.62 0.65 0.68 0.66 0.64 0.59 0.64 0.66 0.62 0.65 0.61 0.50 0.42 0.37 0.30
0.34 0.28 0.25 0.19 0.18 0.20 0.17 0.14 0.13 0.16 0.14 0.12 0.14 0.18 0.21 0.26 0.30 0.31 0.32 0.33 0.34 0.36 0.44 0.47 0.47 0.49 0.47 0.45 0.45 0.47 0.54 0.59 0.59 0.53 0.52 0.58 0.58 0.60 0.68 0.72 0.72 0.73 0.74 0.80 0.77 0.55 0.51 0.49 0.40
0.25 0.25 0.25 0.22 0.19 0.22 0.19 0.16 0.15 0.19 0.16 0.14 0.13 0.14 0.15 0.19 0.23 0.29 0.33 0.33 0.34 0.39 0.44 0.46 0.49 0.55 0.55 0.53 0.55 0.51 0.58 0.60 0.59 0.61 0.61 0.65 0.66 0.68 0.75 0.83 0.83 0.82 0.79 0.82 1.03 0.89 0.62 0.54 0.48
0.30 0.33 0.38 0.25 0.24 0.29 0.27 0.21 0.17 0.21 0.19 0.18 0.17 0.16 0.15 0.17 0.20 0.22 0.25 0.30 0.33 0.41 0.50 0.57 0.51 0.54 0.60 0.62 0.67 0.68 0.70 0.72 0.69 0.69 0.72 0.73 0.76 0.79 0.86 0.89 0.81 0.87 0.93 0.95 1.10 1.15 0.81 0.60 0.57
0.34 0.39 0.37 0.28 0.23 0.27 0.29 0.22 0.19 0.22 0.18 0.17 0.18 0.17 0.15 0.16 0.17 0.16 0.17 0.21 0.29 0.41 0.53 0.61 0.58 0.59 0.68 0.77 0.86 0.87 0.85 0.86 0.84 0.85 0.81 0.84 0.87 0.94 0.99 0.98 0.94 0.96 0.96 1.04 1.04 1.22 1.14 0.88 0.73
0.41 0.33 0.25 0.21 0.21 0.22 0.25 0.19 0.17 0.20 0.18 0.16 0.15 0.15 0.13 0.13 0.16 0.16 0.13 0.14 0.20 0.32 0.45 0.60 0.72 0.84 0.91 0.99 1.08 1.13 1.07 1.01 1.05 1.09 1.07 1.08 1.12 1.09 1.13 1.14 1.17 1.24 1.20 1.16 1.08 1.23 1.29 1.06 0.97
0.35 0.28 0.23 0.16 0.15 0.13 0.11 0.12 0.14 0.17 0.18 0.16 0.14 0.13 0.12 0.11 0.11 0.09 0.09 0.14 0.20 0.29 0.38 0.54 0.88 1.30 1.49 1.41 1.39 1.48 1.60 1.60 1.52 1.50 1.48 1.53 1.52 1.51 1.54 1.50 1.47 1.41 1.34 1.38 1.37 1.55 1.84 1.39 1.17
0.33 0.33 0.27 0.20 0.13 0.10 0.08 0.07 0.09 0.11 0.13 0.14 0.13 0.14 0.13 0.11 0.08 0.06 0.08 0.11 0.17 0.32 0.47 0.59 0.85 1.29 1.50 1.61 1.73 1.95 2.16 2.08 1.97 1.95 1.91 1.99 1.99 2.14 2.12 2.09 2.03 1.90 1.85 1.84 1.75 1.79 2.02 1.67 1.45
0.32 0.33 0.27 0.21 0.12 0.10 0.07 0.06 0.08 0.10 0.09 0.09 0.11 0.14 0.14 0.12 0.11 0.11 0.10 0.14 0.18 0.27 0.39 0.53 0.71 1.00 1.32 1.59 1.88 2.20 2.44 2.44 2.34 2.18 2.15 2.21 2.27 2.41 2.53 2.52 2.54 2.34 2.17 2.14 2.07 2.00 2.06 2.08 1.84
0.23 0.17 0.12 0.10 0.10 0.10 0.07 0.10 0.10 0.13 0.13 0.12 0.13 0.13 0.15 0.15 0.14 0.16 0.16 0.16 0.18 0.23 0.30 0.43 0.61 0.87 1.11 1.36 1.79 2.24 2.56 2.68 2.61 2.50 2.45 2.41 2.43 2.47 2.66 2.68 2.77 2.60 2.46 2.38 2.29 2.09 2.13 2.37 2.24
0.13 0.08 0.07 0.07 0.08 0.07 0.06 0.09 0.12 0.13 0.16 0.16 0.16 0.16 0.16 0.16 0.17 0.20 0.20 0.22 0.24 0.22 0.26 0.38 0.54 0.78 1.02 1.25 1.62 2.05 2.35 2.59 2.76 2.59 2.45 2.47 2.49 2.50 2.61 2.75 2.83 2.69 2.56 2.48 2.58 2.42 2.34 2.22 2.13
0.08 0.06 0.06 0.06 0.07 0.07 0.05 0.11 0.19 0.18 0.17 0.15 0.14 0.15 0.17 0.19 0.24 0.27 0.35 0.39 0.39 0.33 0.36 0.45 0.54 0.68 0.84 0.99 1.23 1.48 1.83 2.13 2.49 2.48 2.41 2.52 2.50 2.38 2.30 2.47 2.68 2.61 2.60 2.60 2.66 2.67 2.61 2.54 2.49
0.04 0.08 0.12 0.12 0.13 0.11 0.08 0.18 0.29 0.25 0.19 0.18 0.18 0.18 0.20 0.22 0.26 0.34 0.47 0.51 0.53 0.46 0.43 0.45 0.55 0.61 0.67 0.78 0.91 1.07 1.34 1.55 1.93 2.25 2.23 2.14 2.18 2.19 2.21 2.24 2.27 2.27 2.36 2.52 2.76 2.69 2.55 2.51 2.56
0.05 0.09 0.17 0.20 0.19 0.19 0.19 0.34 0.42 0.31 0.23 0.21 0.19 0.20 0.23 0.27 0.34 0.50 0.65 0.68 0.68 0.60 0.53 0.52 0.60 0.63 0.65 0.70 0.73 0.83 0.99 1.12 1.30 1.54 1.65 1.68 1.73 1.93 2.00 2.11 2.10 2.10 2.17 2.27 2.40 2.43 2.40 2.35 2.31
0.07 0.10 0.13 0.20 0.18 0.20 0.30 0.46 0.43 0.27 0.25 0.27 0.27 0.28 0.37 0.47 0.55 0.67 0.81 0.83 0.75 0.69 0.61 0.60 0.64 0.73 0.73 0.72 0.74 0.83 0.89 0.93 1.05 1.09 1.24 1.43 1.46 1.50 1.60 1.68 1.78 1.91 2.00 2.07 2.20 2.27 2.25 2.24 2.21
0.06 0.10 0.17 0.28 0.33 0.31 0.33 0.45 0.47 0.37 0.37 0.37 0.42 0.44 0.55 0.66 0.74 0.82 0.95 0.97 0.83 0.71 0.61 0.59 0.61 0.73 0.92 1.04 0.99 0.93 1.00 1.07 1.30 1.33 1.18 1.17 1.35 1.40 1.42 1.44 1.52 1.71 1.86 1.93 1.98 2.05 2.14 2.12 2.13
0.14 0.21 0.27 0.35 0.38 0.49 0.58 0.63 0.58 0.57 0.58 0.59 0.62 0.65 0.74 0.86 0.87 0.84 0.91 0.98 0.87 0.68 0.61 0.56 0.56 0.67 0.83 0.87 0.93 0.92 0.97 1.07 1.35 1.57 1.50 1.32 1.32 1.36 1.32 1.23 1.30 1.45 1.60 1.70 1.80 1.85 1.86 1.87 1.98
0.23 0.34 0.50 0.69 0.66 0.62 0.75 0.79 0.64 0.58 0.62 0.64 0.64 0.63 0.67 0.79 0.80 0.81 0.83 0.80 0.70 0.56 0.49 0.47 0.48 0.59 0.71 0.70 0.77 0.84 0.85 0.94 1.07 1.19 1.21 1.14 1.06 1.03 1.08 1.11 1.12 1.21 1.37 1.46 1.49 1.54 1.59 1.63 1.72

GEFSSGP_prec_meanprecacc_114.txt.gz
Total_Precipitation_Accumulation
0.35 0.61 0.93 1.12 1.48 0.93 0.35 0.23 0.16 0.14 0.12 0.07 0.04 0.04 0.09 0.19 0.38 0.80 0.70 0.41 0.28 0.25 0.31 0.38 0.53 0.55 0.48 0.44 0.52 0.62 0.72 0.85 0.86 0.78 0.66 0.47 0.41 0.31 0.30 0.29 0.30 0.30 0.25 0.29 0.32 0.37 0.36 0.32 0.28
0.51 1.01 1.30 1.75 1.51 0.56 0.34 0.24 0.21 0.15 0.11 0.09 0.04 0.02 0.05 0.09 0.16 0.43 0.65 0.56 0.27 0.19 0.23 0.32 0.47 0.56 0.54 0.57 0.69 0.75 0.80 0.84 0.79 0.69 0.55 0.45 0.41 0.38 0.36 0.40 0.39 0.33 0.29 0.31 0.34 0.43 0.39 0.30 0.27
0.60 1.16 1.46 1.62 0.83 0.39 0.36 0.27 0.22 0.14 0.09 0.07 0.04 0.02 0.05 0.15 0.24 0.47 0.62 0.43 0.26 0.21 0.25 0.36 0.51 0.58 0.60 0.64 0.73 0.82 0.82 0.78 0.72 0.66 0.55 0.49 0.44 0.41 0.41 0.44 0.44 0.39 0.30 0.27 0.32 0.36 0.32 0.29 0.21
0.78 1.30 1.51 1.06 0.54 0.31 0.26 0.25 0.18 0.13 0.07 0.03 0.03 0.05 0.10 0.18 0.30 0.46 0.47 0.37 0.32 0.32 0.35 0.38 0.54 0.58 0.57 0.69 0.75 0.78 0.70 0.65 0.68 0.67 0.58 0.53 0.45 0.43 0.47 0.45 0.40 0.33 0.28 0.26 0.30 0.33 0.31 0.27 0.18
0.87 1.42 1.43 0.82 0.51 0.34 0.26 0.17 0.11 0.10 0.08 0.05 0.04 0.10 0.21 0.26 0.31 0.37 0.38 0.36 0.39 0.47 0.53 0.47 0.58 0.56 0.54 0.66 0.76 0.77 0.79 0.76 0.77 0.76 0.69 0.64 0.53 0.49 0.51 0.45 0.35 0.28 0.27 0.31 0.41 0.42 0.29 0.25 0.20
1.17 1.50 1.66 1.00 0.63 0.40 0.29 0.19 0.11 0.10 0.08 0.06 0.08 0.16 0.25 0.31 0.35 0.43 0.43 0.48 0.51 0.51 0.51 0.51 0.64 0.61 0.60 0.68 0.72 0.68 0.74 0.85 0.89 0.81 0.79 0.95 0.74 0.59 0.50 0.44 0.37 0.32 0.30 0.32 0.39 0.40 0.29 0.25 0.27
1.24 1.57 1.39 0.85 0.61 0.59 0.37 0.19 0.13 0.13 0.13 0.13 0.11 0.23 0.30 0.38 0.32 0.34 0.40 0.45 0.46 0.45 0.47 0.48 0.55 0.62 0.64 0.73 0.81 0.81 0.84 0.93 0.98 0.84 0.85 0.92 0.67 0.48 0.42 0.41 0.40 0.38 0.36 0.37 0.36 0.35 0.32 0.31 0.33
0.69 0.96 1.00 0.81 0.63 0.58 0.33 0.15 0.10 0.10 0.11 0.11 0.12 0.21 0.40 0.43 0.34 0.39 0.43 0.47 0.49 0.51 0.52 0.48 0.53 0.65 0.78 0.80 0.80 0.89 0.96 0.95 1.00 0.89 0.86 0.81 0.56 0.41 0.40 0.36 0.35 0.38 0.41 0.44 0.44 0.42 0.36 0.33 0.32
0.70 0.83 1.04 0.99 0.65 0.47 0.30 0.21 0.13 0.10 0.10 0.11 0.10 0.12 0.22 0.29 0.33 0.44 0.51 0.51 0.56 0.57 0.59 0.55 0.49 0.52 0.67 0.80 0.74 0.95 1.06 1.03 0.95 0.92 0.92 0.81 0.53 0.43 0.42 0.38 0.44 0.46 0.52 0.55 0.55 0.50 0.41 0.33 0.26
0.72 0.92 1.04 0.76 0.50 0.34 0.26 0.19 0.16 0.15 0.16 0.14 0.11 0.13 0.17 0.25 0.34 0.42 0.45 0.50 0.53 0.54 0.49 0.50 0.48 0.47 0.49 0.57 0.84 1.19 1.05 0.96 0.80 0.83 0.80 0.80 0.72 0.64 0.47 0.47 0.60 0.64 0.64 0.65 0.61 0.56 0.43 0.28 0.19
0.65 0.63 0.62 0.60 0.36 0.23 0.17 0.16 0.15 0.13 0.17 0.16 0.15 0.15 0.18 0.24 0.30 0.31 0.35 0.40 0.45 0.48 0.47 0.44 0.42 0.41 0.45 0.59 0.72 0.94 1.02 1.00 0.87 0.76 0.76 0.83 0.78 0.65 0.52 0.46 0.52 0.60 0.65 0.59 0.57 0.52 0.35 0.26 0.23
0.56 0.43 0.38 0.34 0.22 0.20 0.19 0.16 0.14 0.13 0.14 0.12 0.13 0.16 0.22 0.27 0.28 0.27 0.32 0.39 0.44 0.47 0.51 0.51 0.43 0.42 0.46 0.50 0.51 0.59 0.67 0.72 0.71 0.64 0.65 0.77 0.73 0.66 0.62 0.60 0.57 0.58 0.59 0.64 0.62 0.55 0.43 0.35 0.30
0.45 0.38 0.32 0.24 0.21 0.21 0.19 0.17 0.13 0.13 0.13 0.12 0.15 0.21 0.27 0.30 0.29 0.30 0.31 0.34 0.39 0.43 0.49 0.50 0.47 0.43 0.43 0.44 0.44 0.44 0.54 0.59 0.61 0.65 0.62 0.65 0.68 0.66 0.64 0.60 0.65 0.67 0.65 0.67 0.65 0.55 0.48 0.45 0.37
0.37 0.33 0.30 0.24 0.23 0.25 0.21 0.16 0.14 0.16 0.15 0.12 0.14 0.19 0.21 0.27 0.31 0.32 0.33 0.34 0.34 0.37 0.45 0.47 0.48 0.49 0.47 0.45 0.45 0.47 0.54 0.59 0.59 0.53 0.52 0.58 0.59 0.60 0.68 0.72 0.73 0.74 0.75 0.81 0.79 0.60 0.56 0.55 0.47
0.30 0.30 0.29 0.26 0.22 0.26 0.23 0.19 0.17 0.20 0.17 0.14 0.14 0.14 0.16 0.20 0.24 0.29 0.34 0.34 0.35 0.39 0.44 0.47 0.49 0.55 0.55 0.53 0.55 0.51 0.58 0.60 0.59 0.61 0.61 0.65 0.66 0.68 0.76 0.83 0.84 0.83 0.80 0.83 1.06 0.93 0.66 0.59 0.54
0.36 0.38 0.42 0.28 0.27 0.33 0.32 0.23 0.18 0.22 0.19 0.19 0.18 0.17 0.16 0.18 0.21 0.22 0.26 0.32 0.34 0.42 0.50 0.57 0.51 0.55 0.61 0.62 0.67 0.68 0.70 0.72 0.69 0.69 0.72 0.73 0.77 0.79 0.86 0.90 0.82 0.88 0.94 0.97 1.12 1.18 0.85 0.65 0.63
0.39 0.42 0.39 0.30 0.25 0.29 0.31 0.23 0.19 0.22 0.19 0.18 0.18 0.18 0.16 0.16 0.18 0.17 0.17 0.22 0.29 0.41 0.53 0.61 0.58 0.60 0.70 0.78 0.86 0.87 0.85 0.86 0.84 0.85 0.81 0.84 0.87 0.94 0.99 0.98 0.95 0.96 0.97 1.05 1.06 1.24 1.17 0.93 0.77
0.46 0.35 0.26 0.22 0.23 0.24 0.26 0.20 0.18 0.20 0.18 0.17 0.15 0.15 0.13 0.13 0.16 0.16 0.13 0.14 0.20 0.33 0.45 0.60 0.73 0.86 0.94 1.01 1.08 1.13 1.07 1.01 1.05 1.09 1.07 1.08 1.12 1.09 1.13 1.14 1.17 1.25 1.21 1.17 1.09 1.24 1.32 1.10 1.01
0.37 0.30 0.24 0.17 0.16 0.13 0.12 0.12 0.14 0.17 0.18 0.16 0.14 0.13 0.12 0.11 0.11 0.10 0.09 0.14 0.20 0.29 0.38 0.54 0.89 1.32 1.51 1.42 1.39 1.48 1.60 1.60 1.52 1.50 1.48 1.54 1.53 1.52 1.55 1.50 1.47 1.42 1.35 1.39 1.37 1.56 1.86 1.41 1.21
0.35 0.35 0.29 0.21 0.14 0.10 0.08 0.08 0.09 0.11 0.13 0.14 0.13 0.14 0.14 0.11 0.08 0.06 0.08 0.12 0.17 0.32 0.47 0.59 0.85 1.29 1.51 1.62 1.73 1.95 2.16 2.08 1.97 1.96 1.92 1.99 2.00 2.14 2.12 2.09 2.03 1.90 1.86 1.85 1.76 1.79 2.03 1.70 1.48
0.34 0.35 0.29 0.23 0.14 0.11 0.08 0.06 0.08 0.10 0.09 0.10 0.11 0.14 0.14 0.12 0.11 0.11 0.10 0.14 0.18 0.27 0.39 0.53 0.71 1.00 1.32 1.59 1.88 2.20 2.44 2.44 2.34 2.18 2.15 2.22 2.27 2.41 2.54 2.52 2.54 2.34 2.17 2.14 2.07 2.00 2.07 2.11 1.87
0.26 0.19 0.14 0.12 0.12 0.10 0.08 0.11 0.10 0.13 0.13 0.12 0.13 0.13 0.15 0.15 0.14 0.16 0.16 0.16 0.18 0.23 0.30 0.43 0.61 0.87 1.11 1.36 1.79 2.24 2.56 2.68 2.61 2.50 2.45 2.42 2.43 2.47 2.66 2.69 2.77 2.61 2.46 2.38 2.30 2.10 2.14 2.38 2.26
0.15 0.11 0.09 0.09 0.09 0.08 0.06 0.09 0.12 0.13 0.16 0.16 0.16 0.16 0.16 0.16 0.17 0.20 0.20 0.22 0.24 0.22 0.26 0.38 0.54 0.78 1.02 1.25 1.62 2.05 2.35 2.59 2.76 2.59 2.45 2.47 2.49 2.50 2.62 2.76 2.84 2.70 2.57 2.50 2.60 2.44 2.35 2.23 2.14
0.11 0.11 0.08 0.07 0.08 0.07 0.05 0.11 0.19 0.18 0.17 0.15 0.14 0.15 0.17 0.19 0.24 0.27 0.35 0.39 0.39 0.33 0.36 0.45 0.54 0.68 0.84 0.99 1.23 1.48 1.83 2.13 2.49 2.49 2.41 2.53 2.50 2.38 2.31 2.49 2.69 2.63 2.62 2.63 2.69 2.70 2.62 2.55 2.50
0.08 0.12 0.14 0.13 0.14 0.11 0.08 0.18 0.29 0.25 0.19 0.18 0.18 0.18 0.20 0.22 0.26 0.34 0.47 0.51 0.53 0.46 0.43 0.45 0.55 0.61 0.67 0.78 0.91 1.07 1.34 1.55 1.93 2.25 2.23 2.15 2.19 2.22 2.24 2.28 2.29 2.28 2.38 2.55 2.78 2.72 2.56 2.53 2.58
0.07 0.11 0.18 0.20 0.19 0.19 0.19 0.34 0.42 0.31 0.23 0.21 0.19 0.20 0.23 0.27 0.34 0.50 0.65 0.68 0.68 0.60 0.53 0.52 0.60 0.63 0.65 0.70 0.73 0.83 0.99 1.12 1.30 1.54 1.66 1.69 1.75 1.96 2.05 2.15 2.13 2.12 2.18 2.29 2.42 2.45 2.41 2.36 2.32
0.09 0.12 0.14 0.20 0.18 0.20 0.30 0.46 0.43 0.27 0.25 0.27 0.27 0.28 0.37 0.47 0.55 0.67 0.81 0.83 0.75 0.69 0.61 0.60 0.64 0.73 0.73 0.72 0.74 0.83 0.89 0.93 1.05 1.09 1.24 1.43 1.47 1.53 1.64 1.73 1.83 1.94 2.01 2.07 2.21 2.28 2.26 2.25 2.22
0.07 0.11 0.18 0.28 0.33 0.31 0.33 0.45 0.47 0.37 0.37 0.37 0.42 0.44 0.55 0.66 0.74 0.82 0.95 0.97 0.83 0.71 0.61 0.59 0.61 0.73 0.92 1.04 0.99 0.93 1.00 1.07 1.30 1.33 1.18 1.17 1.36 1.42 1.44 1.48 1.56 1.74 1.87 1.95 2.00 2.06 2.15 2.13 2.14
0.15 0.21 0.27 0.35 0.38 0.49 0.58 0.63 0.58 0.57 0.58 0.59 0.62 0.65 0.74 0.86 0.87 0.84 0.91 0.98 0.87 0.68 0.61 0.56 0.56 0.67 0.83 0.87 0.93 0.92 0.97 1.07 1.35 1.57 1.50 1.32 1.32 1.36 1.32 1.24 1.32 1.47 1.61 1.72 1.82 1.87 1.87 1.88 1.99
0.24 0.34 0.50 0.69 0.66 0.62 0.75 0.79 0.64 0.58 0.62 0.64 0.64 0.63 0.67 0.79 0.80 0.81 0.83 0.80 0.70 0.56 0.49 0.47 0.48 0.59 0.71 0.70 0.77 0.84 0.85 0.94 1.07 1.19 1.21 1.14 1.06 1.03 1.08 1.12 1.13 1.22 1.38 1.49 1.53 1.56 1.61 1.65 1.73

GEFSSGP_prec_meanprecacc_120.txt.gz
Total_Precipitation_Accumulation
0.47 0.70 0.96 1.15 1.52 1.00 0.39 0.25 0.17 0.15 0.14 0.08 0.04 0.04 0.10 0.20 0.41 0.85 0.77 0.46 0.30 0.30 0.37 0.44 0.59 0.61 0.56 0.54 0.61 0.71 0.82 0.94 0.96 0.89 0.76 0.57 0.50 0.39 0.37 0.36 0.37 0.35 0.30 0.35 0.36 0.39 0.38 0.33 0.29
0.55 1.05 1.32 1.77 1.55 0.62 0.37 0.26 0.23 0.17 0.12 0.10 0.05 0.02 0.05 0.10 0.17 0.47 0.73 0.61 0.29 0.23 0.27 0.36 0.52 0.62 0.60 0.64 0.76 0.83 0.90 0.94 0.88 0.79 0.64 0.55 0.52 0.47 0.46 0.48 0.47 0.40 0.35 0.36 0.40 0.49 0.43 0.32 0.28
0.64 1.18 1.49 1.65 0.88 0.43 0.39 0.29 0.24 0.16 0.09 0.07 0.05 0.02 0.05 0.16 0.25 0.49 0.65 0.44 0.30 0.25 0.27 0.38 0.54 0.62 0.65 0.69 0.78 0.87 0.88 0.85 0.81 0.75 0.64 0.58 0.55 0.52 0.52 0.54 0.55 0.49 0.39 0.34 0.41 0.45 0.40 0.36 0.26
0.81 1.33 1.55 1.11 0.58 0.34 0.28 0.27 0.19 0.14 0.08 0.04 0.03 0.05 0.10 0.18 0.31 0.47 0.47 0.37 0.33 0.33 0.36 0.39 0.56 0.61 0.59 0.71 0.77 0.79 0.72 0.68 0.73 0.74 0.66 0.61 0.55 0.54 0.57 0.57 0.53 0.46 0.39 0.38 0.43 0.44 0.42 0.39 0.29
0.91 1.47 1.48 0.88 0.55 0.37 0.27 0.18 0.11 0.11 0.09 0.05 0.04 0.10 0.21 0.26 0.31 0.37 0.38 0.36 0.39 0.47 0.53 0.48 0.59 0.57 0.55 0.68 0.77 0.78 0.80 0.78 0.80 0.80 0.74 0.70 0.61 0.58 0.61 0.55 0.47 0.41 0.41 0.46 0.57 0.55 0.41 0.36 0.32
1.24 1.55 1.73 1.06 0.67 0.44 0.32 0.21 0.13 0.11 0.09 0.06 0.08 0.17 0.26 0.32 0.35 0.43 0.43 0.49 0.51 0.51 0.51 0.51 0.64 0.62 0.60 0.68 0.73 0.69 0.74 0.87 0.90 0.83 0.82 0.98 0.79 0.65 0.57 0.53 0.47 0.44 0.43 0.48 0.58 0.57 0.42 0.36 0.38
1.32 1.63 1.44 0.89 0.65 0.63 0.40 0.20 0.14 0.15 0.15 0.14 0.11 0.24 0.31 0.38 0.32 0.35 0.40 0.45 0.46 0.45 0.47 0.48 0.55 0.62 0.65 0.73 0.82 0.81 0.84 0.94 0.99 0.86 0.87 0.95 0.70 0.52 0.46 0.46 0.47 0.49 0.52 0.55 0.57 0.58 0.47 0.42 0.44
0.78 1.03 1.06 0.84 0.67 0.61 0.35 0.16 0.11 0.11 0.12 0.12 0.12 0.22 0.41 0.43 0.34 0.39 0.43 0.48 0.50 0.51 0.52 0.49 0.53 0.65 0.78 0.80 0.81 0.90 0.96 0.95 1.01 0.90 0.88 0.83 0.59 0.44 0.43 0.39 0.40 0.45 0.50 0.58 0.60 0.60 0.52 0.45 0.44
0.77 0.93 1.11 1.04 0.69 0.50 0.32 0.22 0.14 0.10 0.11 0.12 0.10 0.13 0.22 0.29 0.33 0.45 0.52 0.52 0.56 0.57 0.59 0.55 0.49 0.52 0.67 0.80 0.74 0.95 1.06 1.03 0.96 0.92 0.92 0.82 0.55 0.45 0.45 0.40 0.48 0.51 0.60 0.65 0.67 0.63 0.54 0.45 0.37
0.80 1.02 1.09 0.79 0.53 0.36 0.27 0.21 0.17 0.16 0.17 0.15 0.11 0.13 0.17 0.25 0.34 0.43 0.46 0.51 0.54 0.55 0.49 0.50 0.48 0.47 0.49 0.58 0.84 1.19 1.05 0.96 0.80 0.83 0.80 0.80 0.74 0.66 0.50 0.50 0.63 0.68 0.70 0.71 0.70 0.66 0.52 0.37 0.27
0.69 0.67 0.65 0.62 0.38 0.24 0.18 0.17 0.16 0.14 0.18 0.17 0.15 0.15 0.19 0.25 0.30 0.31 0.36 0.41 0.45 0.48 0.47 0.44 0.42 0.41 0.45 0.59 0.72 0.94 1.02 1.00 0.87 0.76 0.76 0.84 0.79 0.68 0.55 0.49 0.54 0.62 0.67 0.62 0.61 0.59 0.41 0.34 0.31
0.58 0.45 0.40 0.36 0.23 0.21 0.20 0.17 0.15 0.14 0.15 0.12 0.14 0.16 0.22 0.28 0.29 0.28 0.32 0.40 0.45 0.47 0.51 0.51 0.43 0.42 0.46 0.50 0.51 0.60 0.67 0.72 0.71 0.64 0.65 0.77 0.73 0.67 0.65 0.62 0.59 0.61 0.61 0.67 0.65 0.59 0.48 0.41 0.38
0.46 0.40 0.33 0.25 0.22 0.22 0.20 0.18 0.14 0.13 0.13 0.12 0.15 0.21 0.28 0.30 0.30 0.31 0.32 0.35 0.40 0.43 0.49 0.50 0.47 0.43 0.43 0.45 0.44 0.44 0.54 0.59 0.61 0.65 0.62 0.65 0.69 0.68 0.66 0.62 0.67 0.69 0.66 0.69 0.68 0.58 0.52 0.49 0.44
0.38 0.34 0.31 0.25 0.24 0.26 0.22 0.18 0.15 0.17 0.15 0.12 0.14 0.19 0.21 0.27 0.31 0.33 0.34 0.34 0.35 0.37 0.45 0.47 0.48 0.50 0.48 0.45 0.45 0.47 0.54 0.59 0.59 0.53 0.52 0.58 0.59 0.61 0.70 0.74 0.74 0.76 0.76 0.82 0.81 0.62 0.59 0.60 0.53
0.31 0.32 0.32 0.27 0.24 0.27 0.24 0.21 0.18 0.20 0.17 0.15 0.14 0.15 0.16 0.20 0.24 0.30 0.34 0.34 0.35 0.40 0.44 0.47 0.50 0.55 0.55 0.53 0.55 0.51 0.58 0.60 0.60 0.61 0.61 0.65 0.66 0.68 0.76 0.84 0.85 0.84 0.81 0.84 1.07 0.94 0.69 0.63 0.58
0.39 0.41 0.44 0.29 0.29 0.35 0.34 0.25 0.18 0.22 0.20 0.20 0.18 0.17 0.16 0.18 0.21 0.22 0.26 0.32 0.34 0.42 0.50 0.57 0.51 0.55 0.61 0.62 0.67 0.68 0.70 0.72 0.69 0.69 0.72 0.73 0.77 0.80 0.86 0.91 0.82 0.89 0.95 0.98 1.14 1.19 0.88 0.70 0.67
0.43 0.44 0.40 0.30 0.27 0.31 0.33 0.23 0.19 0.22 0.19 0.18 0.19 0.18 0.17 0.17 0.18 0.17 0.18 0.22 0.29 0.41 0.54 0.61 0.59 0.61 0.70 0.78 0.86 0.88 0.85 0.86 0.84 0.85 0.82 0.84 0.88 0.95 1.00 0.99 0.95 0.96 0.97 1.06 1.07 1.26 1.20 0.97 0.82
0.48 0.37 0.26 0.23 0.24 0.26 0.28 0.20 0.18 0.20 0.19 0.17 0.16 0.15 0.14 0.14 0.16 0.16 0.13 0.14 0.20 0.33 0.45 0.60 0.73 0.86 0.94 1.01 1.08 1.13 1.07 1.02 1.05 1.09 1.07 1.08 1.13 1.09 1.14 1.15 1.17 1.25 1.22 1.18 1.11 1.26 1.34 1.13 1.06
0.39 0.32 0.25 0.17 0.17 0.15 0.13 0.12 0.14 0.17 0.18 0.16 0.14 0.13 0.12 0.11 0.11 0.10 0.09 0.14 0.20 0.29 0.38 0.54 0.89 1.32 1.52 1.43 1.39 1.48 1.60 1.60 1.52 1.50 1.49 1.54 1.53 1.52 1.55 1.51 1.48 1.43 1.37 1.41 1.40 1.58 1.88 1.43 1.23
0.38 0.38 0.30 0.21 0.16 0.11 0.09 0.08 0.09 0.11 0.13 0.14 0.13 0.14 0.14 0.11 0.08 0.06 0.08 0.12 0.17 0.33 0.47 0.59 0.85 1.30 1.52 1.63 1.74 1.95 2.16 2.08 1.97 1.96 1.92 2.00 2.00 2.15 2.12 2.09 2.05 1.92 1.88 1.87 1.79 1.82 2.06 1.72 1.51
0.36 0.38 0.31 0.25 0.16 0.12 0.08 0.07 0.08 0.10 0.09 0.10 0.11 0.14 0.14 0.12 0.11 0.11 0.10 0.14 0.19 0.28 0.39 0.53 0.71 1.00 1.33 1.59 1.88 2.20 2.45 2.45 2.34 2.18 2.16 2.22 2.27 2.42 2.55 2.53 2.55 2.36 2.19 2.18 2.10 2.03 2.10 2.14 1.90
0.29 0.22 0.17 0.15 0.15 0.13 0.09 0.11 0.10 0.13 0.13 0.12 0.13 0.13 0.15 0.15 0.14 0.16 0.16 0.16 0.18 0.23 0.30 0.43 0.61 0.87 1.12 1.37 1.79 2.24 2.57 2.68 2.61 2.50 2.45 2.42 2.44 2.48 2.68 2.71 2.79 2.62 2.48 2.40 2.32 2.12 2.17 2.42 2.31
0.19 0.15 0.13 0.13 0.12 0.10 0.07 0.10 0.12 0.13 0.16 0.16 0.16 0.16 0.16 0.16 0.17 0.20 0.20 0.22 0.24 0.22 0.26 0.38 0.54 0.78 1.02 1.26 1.62 2.05 2.35 2.59 2.76 2.59 2.46 2.48 2.51 2.53 2.64 2.77 2.85 2.72 2.59 2.52 2.61 2.45 2.38 2.26 2.18
0.17 0.15 0.11 0.09 0.10 0.09 0.05 0.11 0.19 0.18 0.17 0.15 0.14 0.15 0.17 0.19 0.24 0.27 0.35 0.39 0.39 0.33 0.36 0.45 0.54 0.68 0.84 1.00 1.23 1.48 1.83 2.13 2.49 2.49 2.41 2.53 2.52 2.44 2.37 2.51 2.71 2.64 2.63 2.64 2.70 2.71 2.64 2.58 2.53
0.13 0.16 0.17 0.15 0.15 0.11 0.08 0.18 0.29 0.25 0.19 0.18 0.18 0.18 0.20 0.22 0.26 0.34 0.47 0.51 0.53 0.46 0.43 0.45 0.55 0.61 0.67 0.78 0.91 1.07 1.34 1.55 1.93 2.26 2.24 2.15 2.20 2.25 2.30 2.33 2.31 2.30 2.40 2.56 2.79 2.74 2.58 2.55 2.61
0.10 0.14 0.21 0.22 0.20 0.19 0.19 0.34 0.42 0.31 0.23 0.21 0.19 0.20 0.23 0.27 0.34 0.50 0.65 0.68 0.68 0.60 0.53 0.52 0.60 0.63 0.65 0.70 0.73 0.83 0.99 1.12 1.31 1.54 1.66 1.69 1.75 1.97 2.08 2.18 2.15 2.14 2.20 2.31 2.44 2.47 2.44 2.38 2.34
0.11 0.13 0.15 0.21 0.19 0.20 0.30 0.46 0.43 0.27 0.25 0.27 0.27 0.28 0.37 0.47 0.55 0.67 0.81 0.83 0.75 0.69 0.61 0.60 0.64 0.73 0.73 0.72 0.74 0.83 0.89 0.93 1.05 1.09 1.25 1.44 1.48 1.53 1.65 1.76 1.86 1.97 2.03 2.09 2.24 2.30 2.28 2.27 2.24
0.09 0.12 0.19 0.29 0.33 0.31 0.33 0.45 0.47 0.37 0.37 0.37 0.42 0.44 0.55 0.66 0.74 0.82 0.95 0.97 0.83 0.71 0.61 0.59 0.61 0.73 0.92 1.04 0.99 0.93 1.00 1.08 1.30 1.33 1.18 1.18 1.36 1.42 1.45 1.50 1.58 1.76 1.88 1.96 2.01 2.09 2.18 2.15 2.16
0.16 0.23 0.28 0.35 0.38 0.49 0.58 0.63 0.58 0.57 0.58 0.59 0.62 0.65 0.74 0.86 0.87 0.84 0.91 0.98 0.87 0.68 0.61 0.56 0.56 0.67 0.83 0.87 0.93 0.92 0.97 1.07 1.35 1.57 1.50 1.32 1.33 1.37 1.34 1.26 1.33 1.49 1.63 1.73 1.84 1.90 1.90 1.90 2.01
0.25 0.36 0.50 0.69 0.66 0.62 0.75 0.79 0.64 0.58 0.62 0.64 0.64 0.63 0.67 0.79 0.80 0.81 0.83 0.80 0.70 0.56 0.49 0.47 0.48 0.59 0.71 0.70 0.77 0.84 0.85 0.94 1.07 1.19 1.21 1.14 1.07 1.05 1.10 1.14 1.14 1.23 1.41 1.52 1.56 1.59 1.63 1.67 1.75

GEFSSGP_prec_meanprecacc_126.txt.gz
Total_Precipitation_Accumulation
0.50 0.72 1.03 1.28 1.69 1.18 0.54 0.33 0.20 0.16 0.14 0.08 0.04 0.04 0.10 0.21 0.45 0.95 0.87 0.49 0.31 0.31 0.38 0.45 0.61 0.63 0.58 0.57 0.64 0.74 0.85 0.98 1.00 0.94 0.81 0.62 0.54 0.44 0.42 0.42 0.42 0.39 0.33 0.39 0.41 0.42 0.41 0.36 0.31
0.58 1.11 1.43 1.93 1.73 0.79 0.52 0.33 0.27 0.17 0.12 0.10 0.05 0.02 0.05 0.11 0.17 0.49 0.77 0.64 0.29 0.23 0.28 0.37 0.53 0.64 0.62 0.66 0.78 0.85 0.92 0.97 0.92 0.83 0.70 0.60 0.56 0.52 0.50 0.53 0.53 0.47 0.42 0.44 0.47 0.55 0.48 0.38 0.31
0.67 1.25 1.63 1.83 1.04 0.57 0.50 0.32 0.26 0.16 0.09 0.07 0.05 0.03 0.06 0.17 0.26 0.50 0.68 0.45 0.30 0.25 0.27 0.39 0.55 0.64 0.66 0.71 0.80 0.89 0.90 0.88 0.84 0.79 0.69 0.63 0.59 0.56 0.55 0.58 0.59 0.55 0.46 0.42 0.50 0.53 0.47 0.43 0.32
0.89 1.47 1.67 1.26 0.70 0.42 0.33 0.29 0.19 0.14 0.08 0.04 0.03 0.06 0.11 0.18 0.31 0.47 0.48 0.37 0.33 0.33 0.36 0.39 0.57 0.62 0.60 0.72 0.78 0.81 0.73 0.69 0.74 0.76 0.69 0.66 0.59 0.59 0.61 0.61 0.57 0.50 0.46 0.46 0.51 0.52 0.48 0.46 0.36
1.04 1.63 1.65 1.02 0.63 0.41 0.29 0.21 0.12 0.11 0.09 0.05 0.05 0.11 0.23 0.27 0.31 0.37 0.38 0.36 0.39 0.47 0.53 0.48 0.59 0.57 0.56 0.68 0.79 0.80 0.81 0.79 0.81 0.82 0.77 0.73 0.65 0.63 0.66 0.61 0.51 0.45 0.47 0.52 0.65 0.63 0.48 0.43 0.39
1.43 1.71 1.88 1.18 0.74 0.48 0.36 0.23 0.14 0.12 0.10 0.07 0.08 0.18 0.28 0.32 0.36 0.43 0.43 0.49 0.51 0.51 0.51 0.51 0.64 0.62 0.60 0.68 0.74 0.70 0.75 0.87 0.91 0.84 0.83 1.00 0.82 0.68 0.61 0.56 0.51 0.46 0.46 0.53 0.64 0.64 0.49 0.42 0.44
1.50 1.78 1.54 0.97 0.72 0.68 0.45 0.23 0.16 0.16 0.16 0.15 0.12 0.25 0.32 0.39 0.32 0.35 0.40 0.45 0.46 0.45 0.47 0.48 0.55 0.62 0.65 0.74 0.82 0.81 0.85 0.94 0.99 0.86 0.87 0.95 0.73 0.56 0.50 0.49 0.49 0.50 0.55 0.59 0.61 0.63 0.54 0.48 0.50
0.89 1.16 1.13 0.91 0.74 0.66 0.38 0.19 0.13 0.12 0.13 0.12 0.13 0.22 0.42 0.44 0.34 0.39 0.43 0.48 0.50 0.51 0.52 0.49 0.53 0.65 0.78 0.81 0.81 0.90 0.97 0.96 1.01 0.90 0.88 0.84 0.59 0.46 0.46 0.43 0.42 0.45 0.51 0.59 0.63 0.64 0.58 0.53 0.51
0.84 1.05 1.20 1.10 0.73 0.53 0.33 0.24 0.16 0.11 0.11 0.12 0.11 0.13 0.23 0.30 0.33 0.45 0.53 0.53 0.57 0.58 0.59 0.55 0.49 0.52 0.67 0.80 0.74 0.95 1.06 1.03 0.96 0.92 0.92 0.82 0.55 0.47 0.48 0.44 0.51 0.53 0.61 0.67 0.69 0.65 0.57 0.51 0.43
0.88 1.12 1.15 0.83 0.54 0.37 0.28 0.22 0.19 0.16 0.18 0.16 0.13 0.14 0.18 0.26 0.34 0.44 0.47 0.52 0.55 0.55 0.49 0.50 0.48 0.47 0.49 0.58 0.85 1.19 1.05 0.96 0.80 0.83 0.80 0.80 0.74 0.67 0.52 0.51 0.65 0.70 0.72 0.72 0.72 0.68 0.55 0.41 0.33
0.73 0.71 0.68 0.63 0.39 0.25 0.20 0.18 0.17 0.15 0.20 0.18 0.16 0.16 0.19 0.25 0.31 0.32 0.36 0.41 0.45 0.48 0.47 0.44 0.42 0.41 0.45 0.60 0.73 0.94 1.02 1.00 0.87 0.76 0.76 0.84 0.79 0.68 0.56 0.50 0.55 0.64 0.69 0.64 0.63 0.61 0.45 0.39 0.39
0.60 0.47 0.41 0.37 0.24 0.22 0.23 0.18 0.15 0.14 0.17 0.13 0.14 0.16 0.22 0.28 0.29 0.28 0.32 0.40 0.45 0.48 0.51 0.51 0.43 0.42 0.46 0.50 0.51 0.60 0.67 0.72 0.71 0.64 0.65 0.77 0.73 0.68 0.65 0.64 0.60 0.62 0.63 0.69 0.66 0.61 0.51 0.47 0.48
0.49 0.42 0.35 0.25 0.23 0.22 0.22 0.19 0.14 0.14 0.14 0.13 0.15 0.21 0.28 0.30 0.31 0.31 0.32 0.36 0.40 0.43 0.49 0.50 0.47 0.43 0.43 0.45 0.44 0.44 0.54 0.59 0.61 0.65 0.62 0.65 0.69 0.68 0.66 0.63 0.68 0.71 0.68 0.71 0.70 0.59 0.53 0.52 0.49
0.41 0.37 0.36 0.27 0.25 0.26 0.23 0.19 0.16 0.17 0.15 0.13 0.15 0.19 0.21 0.27 0.32 0.34 0.35 0.37 0.37 0.38 0.45 0.48 0.48 0.50 0.48 0.45 0.45 0.47 0.54 0.59 0.59 0.53 0.52 0.58 0.59 0.61 0.70 0.75 0.76 0.77 0.78 0.84 0.82 0.63 0.60 0.62 0.56
0.34 0.35 0.36 0.30 0.25 0.28 0.25 0.24 0.21 0.21 0.18 0.16 0.15 0.15 0.16 0.20 0.24 0.31 0.35 0.36 0.37 0.40 0.45 0.47 0.50 0.55 0.55 0.54 0.56 0.51 0.58 0.60 0.60 0.61 0.61 0.65 0.66 0.68 0.77 0.85 0.86 0.85 0.83 0.86 1.09 0.97 0.71 0.65 0.60
0.43 0.45 0.50 0.35 0.35 0.38 0.36 0.28 0.21 0.24 0.20 0.20 0.19 0.17 0.17 0.18 0.21 0.23 0.26 0.32 0.34 0.42 0.50 0.57 0.51 0.55 0.61 0.64 0.67 0.68 0.70 0.72 0.69 0.69 0.72 0.73 0.77 0.80 0.87 0.93 0.84 0.90 0.97 1.00 1.16 1.22 0.91 0.72 0.70
0.49 0.49 0.45 0.36 0.31 0.34 0.34 0.24 0.21 0.24 0.20 0.18 0.19 0.18 0.17 0.17 0.18 0.17 0.18 0.23 0.30 0.42 0.54 0.61 0.59 0.61 0.70 0.78 0.86 0.88 0.85 0.87 0.85 0.86 0.82 0.84 0.89 0.95 1.01 1.02 0.97 0.98 0.99 1.08 1.09 1.29 1.24 1.02 0.87
0.56 0.42 0.31 0.30 0.32 0.33 0.31 0.21 0.19 0.22 0.20 0.17 0.16 0.16 0.14 0.14 0.16 0.16 0.14 0.15 0.21 0.33 0.45 0.60 0.73 0.86 0.94 1.02 1.09 1.14 1.08 1.02 1.06 1.09 1.07 1.09 1.14 1.10 1.15 1.18 1.20 1.28 1.24 1.21 1.15 1.31 1.39 1.17 1.10
0.47 0.37 0.28 0.23 0.28 0.24 0.18 0.14 0.17 0.20 0.19 0.17 0.14 0.14 0.12 0.11 0.11 0.10 0.10 0.14 0.20 0.29 0.38 0.54 0.89 1.33 1.53 1.44 1.40 1.49 1.61 1.61 1.52 1.51 1.49 1.54 1.54 1.53 1.57 1.53 1.51 1.47 1.41 1.47 1.46 1.65 1.94 1.49 1.28
0.42 0.41 0.36 0.28 0.22 0.16 0.12 0.10 0.11 0.13 0.16 0.15 0.14 0.14 0.14 0.12 0.08 0.06 0.08 0.12 0.17 0.33 0.47 0.60 0.85 1.30 1.52 1.64 1.74 1.97 2.18 2.10 1.97 1.96 1.92 2.00 2.02 2.17 2.14 2.12 2.08 1.98 1.95 1.93 1.85 1.89 2.13 1.79 1.57
0.40 0.39 0.37 0.31 0.20 0.13 0.09 0.07 0.08 0.11 0.11 0.11 0.12 0.14 0.14 0.12 0.11 0.11 0.10 0.14 0.19 0.28 0.39 0.54 0.71 1.01 1.34 1.60 1.89 2.21 2.46 2.46 2.35 2.19 2.16 2.22 2.28 2.44 2.58 2.56 2.59 2.40 2.24 2.24 2.17 2.10 2.18 2.21 1.98
0.32 0.23 0.19 0.17 0.17 0.16 0.10 0.12 0.11 0.14 0.14 0.14 0.13 0.14 0.15 0.15 0.14 0.16 0.16 0.16 0.18 0.23 0.30 0.43 0.61 0.88 1.13 1.38 1.80 2.25 2.57 2.69 2.62 2.51 2.46 2.43 2.45 2.50 2.71 2.74 2.83 2.65 2.53 2.46 2.38 2.18 2.24 2.49 2.38
0.23 0.18 0.14 0.14 0.14 0.12 0.08 0.10 0.13 0.14 0.17 0.17 0.16 0.16 0.16 0.16 0.17 0.20 0.20 0.22 0.24 0.22 0.26 0.38 0.54 0.79 1.04 1.26 1.63 2.06 2.35 2.60 2.77 2.60 2.46 2.49 2.52 2.54 2.66 2.80 2.89 2.75 2.62 2.55 2.64 2.49 2.42 2.32 2.25
0.22 0.18 0.13 0.11 0.13 0.12 0.06 0.12 0.20 0.19 0.18 0.16 0.14 0.15 0.17 0.19 0.24 0.27 0.35 0.39 0.39 0.33 0.36 0.45 0.54 0.68 0.85 1.00 1.23 1.48 1.84 2.14 2.50 2.50 2.42 2.54 2.53 2.45 2.39 2.54 2.74 2.68 2.67 2.67 2.72 2.75 2.68 2.62 2.59
0.16 0.20 0.23 0.20 0.20 0.14 0.08 0.18 0.30 0.26 0.19 0.18 0.18 0.18 0.20 0.22 0.26 0.34 0.47 0.51 0.53 0.46 0.43 0.45 0.55 0.61 0.67 0.78 0.91 1.07 1.34 1.55 1.94 2.26 2.24 2.16 2.21 2.27 2.33 2.36 2.35 2.33 2.44 2.59 2.81 2.76 2.61 2.58 2.65
0.11 0.17 0.29 0.32 0.29 0.23 0.20 0.35 0.42 0.31 0.23 0.21 0.19 0.20 0.23 0.27 0.34 0.50 0.65 0.68 0.68 0.60 0.53 0.52 0.60 0.63 0.65 0.70 0.73 0.83 0.99 1.13 1.31 1.55 1.67 1.71 1.76 1.99 2.10 2.21 2.18 2.18 2.25 2.34 2.47 2.50 2.47 2.41 2.37
0.12 0.14 0.18 0.25 0.24 0.25 0.32 0.46 0.43 0.27 0.25 0.27 0.27 0.28 0.37 0.47 0.55 0.67 0.81 0.83 0.75 0.69 0.61 0.60 0.64 0.73 0.73 0.72 0.74 0.84 0.90 0.94 1.05 1.10 1.25 1.45 1.48 1.54 1.68 1.79 1.89 2.01 2.06 2.13 2.28 2.34 2.31 2.31 2.27
0.09 0.14 0.20 0.30 0.36 0.34 0.35 0.46 0.47 0.37 0.37 0.37 0.42 0.44 0.55 0.66 0.74 0.82 0.95 0.97 0.83 0.71 0.61 0.59 0.61 0.73 0.92 1.04 0.99 0.93 1.00 1.08 1.30 1.34 1.19 1.18 1.37 1.43 1.47 1.53 1.61 1.78 1.91 1.98 2.05 2.14 2.23 2.20 2.20
0.16 0.23 0.29 0.36 0.38 0.51 0.61 0.64 0.58 0.57 0.58 0.59 0.62 0.65 0.74 0.86 0.87 0.84 0.91 0.98 0.87 0.68 0.61 0.56 0.56 0.67 0.83 0.87 0.93 0.92 0.97 1.07 1.35 1.57 1.51 1.33 1.34 1.38 1.35 1.29 1.37 1.53 1.66 1.76 1.87 1.93 1.94 1.94 2.06
0.25 0.36 0.50 0.70 0.66 0.62 0.77 0.79 0.64 0.58 0.62 0.64 0.64 0.63 0.67 0.79 0.80 0.81 0.83 0.80 0.70 0.56 0.49 0.47 0.48 0.59 0.71 0.70 0.77 0.84 0.85 0.95 1.07 1.19 1.21 1.15 1.08 1.06 1.12 1.17 1.18 1.27 1.44 1.56 1.59 1.62 1.66 1.70 1.79

GEFSSGP_prec_meanprecacc_132.txt.gz
Total_Precipitation_Accumulation
0.53 0.77 1.12 1.49 1.88 1.29 0.63 0.42 0.29 0.24 0.20 0.12 0.06 0.04 0.10 0.23 0.47 0.98 0.92 0.54 0.34 0.32 0.38 0.46 0.62 0.64 0.59 0.57 0.64 0.74 0.86 0.98 1.00 0.94 0.82 0.62 0.55 0.44 0.43 0.42 0.43 0.39 0.34 0.40 0.42 0.43 0.42 0.38 0.33
0.61 1.18 1.58 2.15 1.87 0.89 0.61 0.41 0.36 0.22 0.14 0.11 0.05 0.03 0.05 0.11 0.18 0.51 0.83 0.69 0.31 0.24 0.28 0.37 0.54 0.64 0.63 0.66 0.78 0.86 0.93 0.97 0.92 0.84 0.70 0.61 0.57 0.53 0.50 0.53 0.53 0.48 0.42 0.45 0.49 0.56 0.50 0.40 0.33
0.72 1.37 1.83 2.04 1.16 0.66 0.58 0.39 0.34 0.20 0.12 0.08 0.05 0.03 0.06 0.18 0.27 0.52 0.71 0.48 0.31 0.26 0.27 0.39 0.56 0.64 0.66 0.72 0.81 0.89 0.90 0.88 0.84 0.79 0.70 0.64 0.60 0.56 0.55 0.58 0.60 0.56 0.47 0.44 0.52 0.55 0.48 0.44 0.34
1.00 1.65 1.91 1.45 0.78 0.49 0.41 0.39 0.29 0.19 0.11 0.05 0.04 0.06 0.11 0.19 0.31 0.48 0.49 0.37 0.34 0.33 0.36 0.40 0.57 0.62 0.60 0.72 0.79 0.81 0.74 0.69 0.74 0.76 0.70 0.66 0.60 0.59 0.62 0.61 0.58 0.51 0.47 0.48 0.54 0.55 0.50 0.47 0.38
1.21 1.86 1.83 1.14 0.69 0.48 0.37 0.29 0.22 0.17 0.14 0.09 0.05 0.11 0.24 0.28 0.31 0.37 0.38 0.36 0.39 0.47 0.53 0.48 0.60 0.58 0.56 0.69 0.79 0.80 0.81 0.79 0.81 0.83 0.77 0.73 0.65 0.63 0.67 0.61 0.51 0.46 0.48 0.53 0.66 0.65 0.49 0.44 0.41
1.64 1.91 2.01 1.26 0.80 0.56 0.48 0.32 0.22 0.17 0.13 0.12 0.11 0.18 0.29 0.33 0.36 0.44 0.43 0.49 0.51 0.51 0.51 0.51 0.64 0.62 0.61 0.69 0.74 0.70 0.75 0.87 0.91 0.84 0.83 1.00 0.82 0.69 0.62 0.57 0.51 0.47 0.47 0.53 0.65 0.65 0.50 0.43 0.45
1.73 1.94 1.64 1.07 0.83 0.80 0.57 0.31 0.23 0.22 0.20 0.17 0.14 0.26 0.33 0.41 0.33 0.35 0.40 0.45 0.47 0.45 0.47 0.48 0.55 0.62 0.65 0.74 0.82 0.81 0.85 0.94 0.99 0.86 0.87 0.95 0.73 0.57 0.51 0.51 0.50 0.51 0.55 0.60 0.62 0.65 0.56 0.51 0.52
1.10 1.30 1.22 1.00 0.88 0.78 0.46 0.24 0.18 0.16 0.16 0.14 0.14 0.24 0.43 0.46 0.34 0.39 0.43 0.48 0.50 0.51 0.52 0.49 0.53 0.65 0.78 0.81 0.81 0.90 0.97 0.96 1.01 0.90 0.88 0.84 0.59 0.47 0.48 0.45 0.44 0.47 0.52 0.60 0.64 0.65 0.60 0.56 0.53
1.07 1.20 1.29 1.20 0.85 0.61 0.38 0.28 0.19 0.14 0.13 0.13 0.11 0.14 0.24 0.30 0.34 0.45 0.53 0.53 0.57 0.58 0.59 0.55 0.49 0.52 0.67 0.80 0.74 0.95 1.06 1.03 0.96 0.92 0.93 0.82 0.55 0.47 0.49 0.46 0.53 0.54 0.62 0.68 0.70 0.67 0.59 0.53 0.46
1.08 1.25 1.25 0.93 0.64 0.44 0.31 0.25 0.22 0.20 0.20 0.18 0.14 0.15 0.19 0.27 0.35 0.44 0.47 0.52 0.55 0.55 0.49 0.50 0.48 0.47 0.49 0.58 0.85 1.19 1.05 0.96 0.80 0.83 0.81 0.80 0.74 0.68 0.53 0.52 0.66 0.71 0.73 0.73 0.73 0.70 0.57 0.43 0.34
0.91 0.84 0.77 0.77 0.50 0.31 0.24 0.22 0.20 0.18 0.23 0.21 0.18 0.17 0.20 0.25 0.31 0.33 0.37 0.41 0.46 0.48 0.47 0.44 0.42 0.41 0.45 0.60 0.73 0.94 1.02 1.00 0.87 0.76 0.76 0.84 0.79 0.68 0.57 0.50 0.56 0.65 0.70 0.64 0.64 0.62 0.46 0.40 0.41
0.75 0.60 0.50 0.47 0.33 0.28 0.31 0.25 0.20 0.18 0.20 0.15 0.15 0.17 0.23 0.29 0.30 0.29 0.33 0.41 0.46 0.48 0.51 0.51 0.43 0.42 0.46 0.50 0.51 0.60 0.67 0.72 0.71 0.64 0.65 0.77 0.73 0.68 0.66 0.64 0.61 0.62 0.64 0.70 0.67 0.61 0.52 0.48 0.49
0.65 0.54 0.44 0.34 0.31 0.29 0.30 0.27 0.24 0.19 0.17 0.16 0.17 0.22 0.28 0.30 0.31 0.32 0.33 0.36 0.42 0.46 0.51 0.51 0.47 0.44 0.44 0.45 0.44 0.44 0.55 0.59 0.61 0.65 0.62 0.65 0.69 0.68 0.67 0.63 0.69 0.71 0.68 0.72 0.70 0.59 0.54 0.52 0.50
0.60 0.54 0.51 0.39 0.31 0.32 0.29 0.25 0.24 0.24 0.19 0.16 0.17 0.21 0.22 0.27 0.32 0.35 0.36 0.39 0.39 0.40 0.47 0.49 0.49 0.50 0.48 0.45 0.45 0.47 0.54 0.60 0.59 0.53 0.52 0.58 0.59 0.61 0.71 0.75 0.76 0.77 0.78 0.84 0.83 0.64 0.61 0.62 0.57
0.49 0.52 0.51 0.42 0.34 0.38 0.35 0.34 0.30 0.29 0.25 0.26 0.22 0.17 0.17 0.21 0.25 0.32 0.35 0.37 0.39 0.42 0.46 0.48 0.50 0.55 0.56 0.54 0.56 0.51 0.58 0.60 0.60 0.61 0.61 0.65 0.66 0.68 0.77 0.85 0.87 0.86 0.83 0.86 1.09 0.97 0.72 0.66 0.61
0.59 0.60 0.63 0.43 0.40 0.46 0.49 0.44 0.30 0.33 0.29 0.29 0.24 0.20 0.18 0.19 0.22 0.23 0.26 0.33 0.35 0.44 0.52 0.58 0.51 0.56 0.62 0.64 0.68 0.68 0.70 0.72 0.69 0.69 0.72 0.73 0.77 0.80 0.88 0.93 0.84 0.91 0.97 1.00 1.16 1.23 0.92 0.74 0.71
0.67 0.63 0.56 0.44 0.37 0.43 0.46 0.37 0.30 0.31 0.25 0.23 0.22 0.20 0.18 0.18 0.19 0.18 0.19 0.23 0.31 0.43 0.54 0.62 0.60 0.62 0.71 0.79 0.86 0.88 0.85 0.87 0.85 0.86 0.82 0.84 0.89 0.95 1.01 1.02 0.97 0.98 0.99 1.09 1.09 1.29 1.25 1.03 0.88
0.67 0.50 0.40 0.39 0.39 0.42 0.44 0.30 0.25 0.26 0.23 0.20 0.19 0.19 0.16 0.15 0.18 0.17 0.15 0.16 0.21 0.34 0.46 0.60 0.74 0.87 0.95 1.02 1.09 1.14 1.08 1.02 1.06 1.10 1.07 1.09 1.14 1.10 1.15 1.18 1.20 1.28 1.25 1.22 1.15 1.31 1.41 1.19 1.13
0.54 0.45 0.36 0.32 0.35 0.33 0.28 0.22 0.22 0.23 0.22 0.19 0.16 0.16 0.14 0.13 0.12 0.11 0.10 0.15 0.21 0.30 0.39 0.56 0.90 1.33 1.53 1.44 1.40 1.49 1.61 1.61 1.52 1.51 1.49 1.54 1.54 1.53 1.57 1.53 1.51 1.47 1.41 1.47 1.47 1.66 1.96 1.51 1.30
0.50 0.48 0.42 0.34 0.26 0.23 0.20 0.16 0.15 0.17 0.19 0.17 0.16 0.16 0.16 0.14 0.11 0.08 0.09 0.12 0.18 0.33 0.48 0.61 0.86 1.30 1.53 1.64 1.75 1.97 2.18 2.10 1.97 1.96 1.92 2.00 2.02 2.17 2.14 2.12 2.09 1.98 1.95 1.94 1.86 1.91 2.15 1.81 1.59
0.46 0.44 0.41 0.35 0.23 0.17 0.13 0.11 0.11 0.13 0.14 0.13 0.14 0.16 0.15 0.13 0.12 0.11 0.11 0.15 0.19 0.29 0.40 0.55 0.71 1.01 1.34 1.60 1.89 2.21 2.46 2.46 2.35 2.19 2.16 2.22 2.29 2.44 2.58 2.57 2.59 2.41 2.25 2.25 2.18 2.11 2.19 2.23 2.00
0.39 0.29 0.24 0.21 0.22 0.21 0.13 0.15 0.13 0.16 0.16 0.15 0.15 0.16 0.17 0.16 0.15 0.17 0.16 0.17 0.19 0.25 0.32 0.44 0.62 0.88 1.13 1.38 1.80 2.25 2.57 2.69 2.62 2.51 2.46 2.43 2.45 2.50 2.71 2.74 2.83 2.65 2.53 2.46 2.39 2.19 2.26 2.51 2.40
0.27 0.22 0.18 0.17 0.16 0.15 0.12 0.13 0.15 0.16 0.19 0.18 0.18 0.18 0.17 0.16 0.18 0.21 0.21 0.23 0.25 0.23 0.28 0.38 0.55 0.79 1.04 1.27 1.63 2.06 2.36 2.60 2.77 2.60 2.47 2.49 2.52 2.55 2.67 2.81 2.90 2.76 2.63 2.55 2.64 2.50 2.44 2.34 2.27
0.23 0.20 0.15 0.13 0.15 0.14 0.08 0.14 0.22 0.20 0.19 0.18 0.16 0.16 0.18 0.20 0.24 0.28 0.36 0.40 0.39 0.33 0.36 0.45 0.54 0.68 0.85 1.00 1.23 1.48 1.84 2.14 2.50 2.50 2.42 2.54 2.53 2.45 2.39 2.55 2.75 2.69 2.68 2.68 2.73 2.76 2.69 2.64 2.60
0.17 0.22 0.25 0.23 0.22 0.16 0.10 0.19 0.31 0.27 0.20 0.19 0.20 0.20 0.21 0.23 0.27 0.35 0.48 0.52 0.53 0.47 0.43 0.45 0.55 0.61 0.67 0.78 0.91 1.07 1.35 1.55 1.94 2.26 2.24 2.16 2.22 2.27 2.33 2.37 2.35 2.35 2.45 2.60 2.82 2.77 2.62 2.59 2.67
0.13 0.20 0.31 0.36 0.32 0.25 0.22 0.36 0.43 0.32 0.23 0.21 0.21 0.22 0.25 0.29 0.35 0.51 0.66 0.68 0.68 0.60 0.53 0.52 0.60 0.63 0.65 0.70 0.73 0.83 1.00 1.13 1.31 1.55 1.67 1.71 1.77 1.99 2.10 2.21 2.18 2.18 2.26 2.35 2.47 2.50 2.48 2.43 2.39
0.13 0.15 0.19 0.28 0.27 0.27 0.34 0.48 0.43 0.27 0.26 0.28 0.28 0.29 0.38 0.48 0.55 0.68 0.81 0.83 0.75 0.69 0.61 0.60 0.64 0.73 0.73 0.72 0.74 0.84 0.90 0.94 1.06 1.10 1.25 1.45 1.48 1.55 1.69 1.80 1.90 2.01 2.07 2.14 2.29 2.35 2.32 2.32 2.29
0.10 0.15 0.22 0.33 0.40 0.39 0.38 0.47 0.48 0.37 0.38 0.37 0.42 0.44 0.55 0.66 0.74 0.83 0.95 0.97 0.83 0.71 0.61 0.59 0.61 0.73 0.92 1.04 0.99 0.93 1.01 1.08 1.30 1.34 1.19 1.18 1.37 1.44 1.48 1.54 1.63 1.79 1.92 1.99 2.06 2.15 2.25 2.22 2.21
0.17 0.24 0.30 0.38 0.41 0.56 0.64 0.66 0.59 0.57 0.58 0.59 0.62 0.65 0.74 0.86 0.87 0.84 0.91 0.98 0.87 0.68 0.61 0.56 0.56 0.67 0.83 0.87 0.93 0.92 0.97 1.07 1.35 1.57 1.51 1.33 1.34 1.38 1.36 1.30 1.39 1.54 1.67 1.77 1.88 1.94 1.96 1.95 2.07
0.26 0.37 0.51 0.71 0.68 0.64 0.78 0.81 0.65 0.58 0.63 0.64 0.64 0.63 0.67 0.79 0.80 0.81 0.83 0.80 0.70 0.56 0.49 0.47 0.48 0.59 0.71 0.70 0.77 0.84 0.86 0.95 1.07 1.19 1.21 1.15 1.08 1.06 1.13 1.18 1.20 1.28 1.46 1.57 1.60 1.62 1.66 1.71 1.80